Time,TemperatureF,DewpointF,PressureIn,WindDirection,WindDirectionDegrees,WindSpeedMPH,WindSpeedGustMPH,Humidity,HourlyPrecipIn,Conditions,Clouds,dailyrainin,SoftwareType,DateUTC
2013-04-07 00:00:00,38.7,29.0,30.34,SSW,203,0.2,2.0,68,0.00,,,0.00,WUHU216HW,2013-04-07 04:00:00,
2013-04-07 00:01:00,38.7,29.0,30.33,SSW,203,0.4,2.0,68,0.00,,,0.00,WUHU216HW,2013-04-07 04:01:00,
2013-04-07 00:05:00,38.7,29.0,30.34,South,180,0.7,2.2,68,0.00,,,0.00,WUHU216HW,2013-04-07 04:05:00,
2013-04-07 00:07:00,38.7,29.0,30.34,SSE,158,1.3,2.2,68,0.00,,,0.00,WUHU216HW,2013-04-07 04:07:00,
2013-04-07 00:10:00,38.7,29.3,30.34,SSW,203,0.4,2.2,69,0.00,,,0.00,WUHU216HW,2013-04-07 04:10:00,
2013-04-07 00:11:00,38.7,29.3,30.34,South,180,0.7,2.2,69,0.00,,,0.00,WUHU216HW,2013-04-07 04:11:00,
2013-04-07 00:12:00,38.7,29.0,30.34,South,180,0.7,2.2,68,0.00,,,0.00,WUHU216HW,2013-04-07 04:12:00,
2013-04-07 00:15:00,38.7,29.3,30.34,SW,225,1.1,2.2,69,0.00,,,0.00,WUHU216HW,2013-04-07 04:15:00,
2013-04-07 00:17:00,38.9,29.5,30.34,South,180,1.1,2.5,69,0.00,,,0.00,WUHU216HW,2013-04-07 04:17:00,
2013-04-07 00:20:00,38.7,29.3,30.34,NNW,338,1.1,3.8,69,0.00,,,0.00,WUHU216HW,2013-04-07 04:20:00,
2013-04-07 00:21:00,38.7,29.8,30.34,SW,225,2.5,3.8,70,0.00,,,0.00,WUHU216HW,2013-04-07 04:21:00,
2013-04-07 00:22:00,38.9,29.5,30.34,South,180,1.1,3.8,69,0.00,,,0.00,WUHU216HW,2013-04-07 04:22:00,
2013-04-07 00:25:00,38.9,29.9,30.34,SSE,158,2.2,3.8,70,0.00,,,0.00,WUHU216HW,2013-04-07 04:25:00,
2013-04-07 00:26:00,38.9,29.9,30.34,SSW,203,1.1,3.8,70,0.00,,,0.00,WUHU216HW,2013-04-07 04:26:00,
2013-04-07 00:27:00,38.9,29.9,30.34,SSW,203,1.8,3.8,70,0.00,,,0.00,WUHU216HW,2013-04-07 04:27:00,
2013-04-07 00:31:00,38.9,30.2,30.34,SSE,158,1.1,2.7,71,0.00,,,0.00,WUHU216HW,2013-04-07 04:31:00,
2013-04-07 00:32:00,38.9,30.2,30.34,SSW,203,0.4,2.7,71,0.00,,,0.00,WUHU216HW,2013-04-07 04:32:00,
2013-04-07 00:36:00,39.1,30.4,30.34,SW,225,2.0,3.6,71,0.00,,,0.00,WUHU216HW,2013-04-07 04:36:00,
2013-04-07 00:37:00,39.1,30.4,30.34,SSW,203,2.5,3.6,71,0.00,,,0.00,WUHU216HW,2013-04-07 04:37:00,
2013-04-07 00:42:00,39.2,30.6,30.34,SW,225,1.8,3.6,71,0.00,,,0.00,WUHU216HW,2013-04-07 04:42:00,
2013-04-07 00:47:00,39.2,30.6,30.34,SE,135,0.2,3.1,71,0.00,,,0.00,WUHU216HW,2013-04-07 04:47:00,
2013-04-07 00:48:00,39.2,30.6,30.34,WSW,248,2.0,3.1,71,0.00,,,0.00,WUHU216HW,2013-04-07 04:48:00,
2013-04-07 00:52:00,39.2,30.6,30.34,SE,135,1.6,3.1,71,0.00,,,0.00,WUHU216HW,2013-04-07 04:52:00,
2013-04-07 00:53:00,39.2,30.6,30.35,WSW,248,1.6,3.1,71,0.00,,,0.00,WUHU216HW,2013-04-07 04:53:00,
2013-04-07 00:58:00,39.2,30.6,30.34,West,270,1.1,3.4,71,0.00,,,0.00,WUHU216HW,2013-04-07 04:58:00,
2013-04-07 01:00:00,39.2,30.6,30.35,South,180,0.9,3.4,71,0.00,,,0.00,WUHU216HW,2013-04-07 05:00:00,
2013-04-07 01:03:00,39.2,31.0,30.35,WSW,248,1.3,3.4,72,0.00,,,0.00,WUHU216HW,2013-04-07 05:03:00,
2013-04-07 01:05:00,39.2,30.6,30.35,SSW,203,1.1,3.4,71,0.00,,,0.00,WUHU216HW,2013-04-07 05:05:00,
2013-04-07 01:08:00,39.2,30.6,30.34,SSE,158,0.7,2.9,71,0.00,,,0.00,WUHU216HW,2013-04-07 05:08:00,
2013-04-07 01:10:00,39.2,31.0,30.34,WSW,248,1.6,2.9,72,0.00,,,0.00,WUHU216HW,2013-04-07 05:10:00,
2013-04-07 01:13:00,39.2,31.0,30.34,WSW,248,1.6,2.7,72,0.00,,,0.00,WUHU216HW,2013-04-07 05:13:00,
2013-04-07 01:15:00,39.4,31.2,30.34,WSW,248,1.8,4.7,72,0.00,,,0.00,WUHU216HW,2013-04-07 05:15:00,
2013-04-07 01:18:00,39.4,31.2,30.34,SW,225,1.1,4.7,72,0.00,,,0.00,WUHU216HW,2013-04-07 05:18:00,
2013-04-07 01:20:00,39.2,30.6,30.34,West,270,1.8,4.7,71,0.00,,,0.00,WUHU216HW,2013-04-07 05:20:00,
2013-04-07 01:23:00,39.4,30.8,30.34,West,270,2.5,4.7,71,0.00,,,0.00,WUHU216HW,2013-04-07 05:23:00,
2013-04-07 01:26:00,39.4,31.2,30.34,SW,225,2.2,3.1,72,0.00,,,0.00,WUHU216HW,2013-04-07 05:26:00,
2013-04-07 01:28:00,39.4,31.2,30.34,South,180,2.5,4.0,72,0.00,,,0.00,WUHU216HW,2013-04-07 05:28:00,
2013-04-07 01:32:00,39.4,31.2,30.34,WSW,248,2.0,4.0,72,0.00,,,0.00,WUHU216HW,2013-04-07 05:32:00,
2013-04-07 01:33:00,39.4,31.2,30.34,WSW,248,3.6,4.0,72,0.00,,,0.00,WUHU216HW,2013-04-07 05:33:00,
2013-04-07 01:37:00,39.4,31.2,30.34,SSW,203,1.3,4.0,72,0.00,,,0.00,WUHU216HW,2013-04-07 05:37:00,
2013-04-07 01:38:00,39.4,30.8,30.34,WSW,248,2.5,4.0,71,0.00,,,0.00,WUHU216HW,2013-04-07 05:38:00,
2013-04-07 01:42:00,39.4,31.2,30.34,SW,225,3.4,4.0,72,0.00,,,0.00,WUHU216HW,2013-04-07 05:42:00,
2013-04-07 01:43:00,39.4,31.2,30.34,SSW,203,1.1,4.0,72,0.00,,,0.00,WUHU216HW,2013-04-07 05:43:00,
2013-04-07 01:47:00,39.4,31.2,30.34,SW,225,1.8,3.8,72,0.00,,,0.00,WUHU216HW,2013-04-07 05:47:00,
2013-04-07 01:48:00,39.4,31.2,30.34,SSW,203,0.9,3.8,72,0.00,,,0.00,WUHU216HW,2013-04-07 05:48:00,
2013-04-07 01:49:00,39.6,31.3,30.34,WSW,248,1.1,3.8,72,0.00,,,0.00,WUHU216HW,2013-04-07 05:49:00,
2013-04-07 01:50:00,39.6,31.0,30.34,SSW,203,0.4,3.8,71,0.00,,,0.00,WUHU216HW,2013-04-07 05:50:00,
2013-04-07 01:52:00,39.6,31.0,30.34,South,180,1.6,3.8,71,0.00,,,0.00,WUHU216HW,2013-04-07 05:52:00,
2013-04-07 01:53:00,39.6,31.0,30.34,SSW,203,0.9,3.8,71,0.00,,,0.00,WUHU216HW,2013-04-07 05:53:00,
2013-04-07 01:54:00,39.6,31.3,30.34,South,180,2.9,3.8,72,0.00,,,0.00,WUHU216HW,2013-04-07 05:54:00,
2013-04-07 01:55:00,39.6,31.6,30.34,SSW,203,2.0,4.0,73,0.00,,,0.00,WUHU216HW,2013-04-07 05:55:00,
2013-04-07 01:58:00,39.6,31.3,30.34,West,270,1.3,4.0,72,0.00,,,0.00,WUHU216HW,2013-04-07 05:58:00,
2013-04-07 02:00:00,39.6,31.6,30.33,SSW,203,2.5,4.0,73,0.00,,,0.00,WUHU216HW,2013-04-07 06:00:00,
2013-04-07 02:03:00,39.6,31.3,30.33,SSW,203,0.9,4.0,72,0.00,,,0.00,WUHU216HW,2013-04-07 06:03:00,
2013-04-07 02:05:00,39.4,30.8,30.33,WSW,248,1.6,3.6,71,0.00,,,0.00,WUHU216HW,2013-04-07 06:05:00,
2013-04-07 02:06:00,39.4,30.8,30.33,WSW,248,2.2,3.6,71,0.00,,,0.00,WUHU216HW,2013-04-07 06:06:00,
2013-04-07 02:08:00,39.4,30.8,30.33,SSE,158,0.7,3.6,71,0.00,,,0.00,WUHU216HW,2013-04-07 06:08:00,
2013-04-07 02:10:00,39.4,30.8,30.33,SW,225,1.8,3.6,71,0.00,,,0.00,WUHU216HW,2013-04-07 06:10:00,
2013-04-07 02:11:00,39.4,30.8,30.33,SW,225,2.7,3.6,71,0.00,,,0.00,WUHU216HW,2013-04-07 06:11:00,
2013-04-07 02:13:00,39.4,30.8,30.33,SSW,203,2.5,4.7,71,0.00,,,0.00,WUHU216HW,2013-04-07 06:13:00,
2013-04-07 02:15:00,39.4,31.2,30.33,WSW,248,0.7,4.7,72,0.00,,,0.00,WUHU216HW,2013-04-07 06:15:00,
2013-04-07 02:16:00,39.4,31.2,30.33,SSW,203,0.4,4.7,72,0.00,,,0.00,WUHU216HW,2013-04-07 06:16:00,
2013-04-07 02:18:00,39.4,31.2,30.33,WSW,248,2.2,4.7,72,0.00,,,0.00,WUHU216HW,2013-04-07 06:18:00,
2013-04-07 02:21:00,39.4,31.2,30.33,WSW,248,4.3,4.7,72,0.00,,,0.00,WUHU216HW,2013-04-07 06:21:00,
2013-04-07 02:23:00,39.2,31.0,30.33,SSW,203,1.8,4.3,72,0.00,,,0.00,WUHU216HW,2013-04-07 06:23:00,
2013-04-07 02:27:00,39.4,31.2,30.33,South,180,1.1,4.3,72,0.00,,,0.00,WUHU216HW,2013-04-07 06:27:00,
2013-04-07 02:29:00,39.2,31.0,30.33,West,270,3.4,4.3,72,0.00,,,0.00,WUHU216HW,2013-04-07 06:29:00,
2013-04-07 02:32:00,39.2,31.0,30.32,WSW,248,3.1,4.0,72,0.00,,,0.00,WUHU216HW,2013-04-07 06:32:00,
2013-04-07 02:34:00,39.2,31.0,30.32,WSW,248,1.1,3.8,72,0.00,,,0.00,WUHU216HW,2013-04-07 06:34:00,
2013-04-07 02:35:00,39.4,31.2,30.32,WSW,248,2.5,4.0,72,0.00,,,0.00,WUHU216HW,2013-04-07 06:35:00,
2013-04-07 02:37:00,39.4,31.4,30.32,SW,225,1.8,4.7,73,0.00,,,0.00,WUHU216HW,2013-04-07 06:37:00,
2013-04-07 02:39:00,39.4,31.4,30.32,SW,225,1.1,4.7,73,0.00,,,0.00,WUHU216HW,2013-04-07 06:39:00,
2013-04-07 02:40:00,39.4,31.4,30.32,WSW,248,3.8,5.4,73,0.00,,,0.00,WUHU216HW,2013-04-07 06:40:00,
2013-04-07 02:42:00,39.4,31.4,30.32,SW,225,2.0,5.4,73,0.00,,,0.00,WUHU216HW,2013-04-07 06:42:00,
2013-04-07 02:44:00,39.4,31.4,30.32,WSW,248,2.5,5.4,73,0.00,,,0.00,WUHU216HW,2013-04-07 06:44:00,
2013-04-07 02:47:00,39.4,31.2,30.32,WSW,248,4.0,5.4,72,0.00,,,0.00,WUHU216HW,2013-04-07 06:47:00,
2013-04-07 02:48:00,39.4,31.2,30.32,WSW,248,4.7,5.4,72,0.00,,,0.00,WUHU216HW,2013-04-07 06:48:00,
2013-04-07 02:50:00,39.4,31.2,30.32,WNW,293,2.0,5.4,72,0.00,,,0.00,WUHU216HW,2013-04-07 06:50:00,
2013-04-07 02:52:00,39.4,31.2,30.32,SSE,158,0.2,4.7,72,0.00,,,0.00,WUHU216HW,2013-04-07 06:52:00,
2013-04-07 02:53:00,39.4,31.2,30.32,SSE,158,0.2,4.7,72,0.00,,,0.00,WUHU216HW,2013-04-07 06:53:00,
2013-04-07 02:55:00,39.6,31.3,30.32,SW,225,1.8,4.7,72,0.00,,,0.00,WUHU216HW,2013-04-07 06:55:00,
2013-04-07 02:57:00,39.4,31.2,30.32,South,180,1.3,4.7,72,0.00,,,0.00,WUHU216HW,2013-04-07 06:57:00,
2013-04-07 02:58:00,39.4,31.2,30.32,SW,225,1.1,3.4,72,0.00,,,0.00,WUHU216HW,2013-04-07 06:58:00,
2013-04-07 03:00:00,39.4,31.2,30.32,SW,225,1.8,3.8,72,0.00,,,0.00,WUHU216HW,2013-04-07 07:00:00,
2013-04-07 03:03:00,39.4,31.2,30.32,WSW,248,0.9,3.8,72,0.00,,,0.00,WUHU216HW,2013-04-07 07:03:00,
2013-04-07 03:05:00,39.4,31.2,30.32,South,180,4.5,5.1,72,0.00,,,0.00,WUHU216HW,2013-04-07 07:05:00,
2013-04-07 03:08:00,39.4,31.2,30.32,SW,225,5.6,5.6,72,0.00,,,0.00,WUHU216HW,2013-04-07 07:08:00,
2013-04-07 03:09:00,39.4,31.2,30.32,WNW,293,0.4,5.6,72,0.00,,,0.00,WUHU216HW,2013-04-07 07:09:00,
2013-04-07 03:10:00,39.4,31.2,30.31,SSW,203,2.9,5.6,72,0.00,,,0.00,WUHU216HW,2013-04-07 07:10:00,
2013-04-07 03:13:00,39.4,31.2,30.31,SSW,203,0.4,5.6,72,0.00,,,0.00,WUHU216HW,2013-04-07 07:13:00,
2013-04-07 03:14:00,39.4,31.2,30.31,SSW,203,1.6,5.6,72,0.00,,,0.00,WUHU216HW,2013-04-07 07:14:00,
2013-04-07 03:15:00,39.4,31.2,30.31,WSW,248,0.4,5.6,72,0.00,,,0.00,WUHU216HW,2013-04-07 07:15:00,
2013-04-07 03:16:00,39.4,31.2,30.31,WSW,248,0.4,5.6,72,0.00,,,0.00,WUHU216HW,2013-04-07 07:16:00,
2013-04-07 03:18:00,39.4,31.2,30.31,SSW,203,2.5,5.6,72,0.00,,,0.00,WUHU216HW,2013-04-07 07:18:00,
2013-04-07 03:19:00,39.4,31.2,30.31,SW,225,1.6,4.7,72,0.00,,,0.00,WUHU216HW,2013-04-07 07:19:00,
2013-04-07 03:20:00,39.4,31.2,30.31,SSW,203,1.1,4.7,72,0.00,,,0.00,WUHU216HW,2013-04-07 07:20:00,
2013-04-07 03:21:00,39.4,31.2,30.31,SSW,203,1.1,4.7,72,0.00,,,0.00,WUHU216HW,2013-04-07 07:21:00,
2013-04-07 03:23:00,39.4,31.2,30.31,SSW,203,2.9,3.6,72,0.00,,,0.00,WUHU216HW,2013-04-07 07:23:00,
2013-04-07 03:25:00,39.4,31.2,30.31,SSW,203,0.4,3.6,72,0.00,,,0.00,WUHU216HW,2013-04-07 07:25:00,
2013-04-07 03:26:00,39.4,30.8,30.31,WSW,248,2.7,3.6,71,0.00,,,0.00,WUHU216HW,2013-04-07 07:26:00,
2013-04-07 03:27:00,39.4,30.8,30.31,SSW,203,1.1,3.6,71,0.00,,,0.00,WUHU216HW,2013-04-07 07:27:00,
2013-04-07 03:28:00,39.4,30.8,30.31,WSW,248,1.8,3.4,71,0.00,,,0.00,WUHU216HW,2013-04-07 07:28:00,
2013-04-07 03:30:00,39.2,31.0,30.31,WSW,248,0.4,3.4,72,0.00,,,0.00,WUHU216HW,2013-04-07 07:30:00,
2013-04-07 03:31:00,39.2,30.6,30.31,WSW,248,0.7,3.4,71,0.00,,,0.00,WUHU216HW,2013-04-07 07:31:00,
2013-04-07 03:32:00,39.2,30.6,30.31,SSW,203,1.1,2.9,71,0.00,,,0.00,WUHU216HW,2013-04-07 07:32:00,
2013-04-07 03:33:00,39.2,30.6,30.31,WSW,248,0.4,2.7,71,0.00,,,0.00,WUHU216HW,2013-04-07 07:33:00,
2013-04-07 03:35:00,39.2,31.0,30.30,SW,225,2.0,2.7,72,0.00,,,0.00,WUHU216HW,2013-04-07 07:35:00,
2013-04-07 03:37:00,39.2,31.0,30.31,SW,225,0.4,2.9,72,0.00,,,0.00,WUHU216HW,2013-04-07 07:37:00,
2013-04-07 03:38:00,39.2,31.0,30.31,South,180,0.4,2.9,72,0.00,,,0.00,WUHU216HW,2013-04-07 07:38:00,
2013-04-07 03:40:00,39.2,31.0,30.30,SSE,158,0.0,2.9,72,0.00,,,0.00,WUHU216HW,2013-04-07 07:40:00,
2013-04-07 03:42:00,39.2,31.0,30.30,SW,225,0.9,2.9,72,0.00,,,0.00,WUHU216HW,2013-04-07 07:42:00,
2013-04-07 03:43:00,39.2,31.0,30.30,SSW,203,0.2,2.9,72,0.00,,,0.00,WUHU216HW,2013-04-07 07:43:00,
2013-04-07 03:46:00,39.2,31.0,30.30,SSE,158,0.0,2.2,72,0.00,,,0.00,WUHU216HW,2013-04-07 07:46:00,
2013-04-07 03:47:00,39.2,31.0,30.30,South,180,0.0,2.2,72,0.00,,,0.00,WUHU216HW,2013-04-07 07:47:00,
2013-04-07 03:48:00,39.2,31.0,30.31,WSW,248,0.9,2.2,72,0.00,,,0.00,WUHU216HW,2013-04-07 07:48:00,
2013-04-07 03:52:00,39.2,31.0,30.30,SSW,203,0.2,1.8,72,0.00,,,0.00,WUHU216HW,2013-04-07 07:52:00,
2013-04-07 03:53:00,39.1,30.8,30.30,NW,315,0.4,2.2,72,0.00,,,0.00,WUHU216HW,2013-04-07 07:53:00,
2013-04-07 03:57:00,39.1,30.8,30.30,WSW,248,0.7,3.1,72,0.00,,,0.00,WUHU216HW,2013-04-07 07:57:00,
2013-04-07 03:58:00,39.1,30.8,30.30,SSW,203,1.3,3.1,72,0.00,,,0.00,WUHU216HW,2013-04-07 07:58:00,
2013-04-07 03:59:00,39.1,30.8,30.30,SW,225,2.7,3.1,72,0.00,,,0.00,WUHU216HW,2013-04-07 07:59:00,
2013-04-07 04:02:00,38.9,30.6,30.30,WSW,248,1.6,3.1,72,0.00,,,0.00,WUHU216HW,2013-04-07 08:02:00,
2013-04-07 04:03:00,38.9,30.6,30.30,SW,225,2.0,3.1,72,0.00,,,0.00,WUHU216HW,2013-04-07 08:03:00,
2013-04-07 04:06:00,38.9,30.6,30.31,West,270,1.3,3.1,72,0.00,,,0.00,WUHU216HW,2013-04-07 08:06:00,
2013-04-07 04:07:00,38.9,30.6,30.30,SW,225,0.4,2.9,72,0.00,,,0.00,WUHU216HW,2013-04-07 08:07:00,
2013-04-07 04:08:00,38.9,30.6,30.30,SSW,203,2.5,3.4,72,0.00,,,0.00,WUHU216HW,2013-04-07 08:08:00,
2013-04-07 04:11:00,38.9,30.6,30.30,SW,225,0.0,3.4,72,0.00,,,0.00,WUHU216HW,2013-04-07 08:11:00,
2013-04-07 04:12:00,38.9,30.6,30.30,SW,225,1.6,3.4,72,0.00,,,0.00,WUHU216HW,2013-04-07 08:12:00,
2013-04-07 04:13:00,38.9,31.0,30.30,South,180,3.8,3.8,73,0.00,,,0.00,WUHU216HW,2013-04-07 08:13:00,
2013-04-07 04:16:00,38.7,30.4,30.30,West,270,1.6,3.8,72,0.00,,,0.00,WUHU216HW,2013-04-07 08:16:00,
2013-04-07 04:18:00,38.7,30.4,30.30,SW,225,0.2,3.8,72,0.00,,,0.00,WUHU216HW,2013-04-07 08:18:00,
2013-04-07 04:19:00,38.7,30.4,30.30,SW,225,0.4,3.8,72,0.00,,,0.00,WUHU216HW,2013-04-07 08:19:00,
2013-04-07 04:21:00,38.7,30.4,30.30,SW,225,0.2,3.8,72,0.00,,,0.00,WUHU216HW,2013-04-07 08:21:00,
2013-04-07 04:23:00,38.7,30.4,30.31,SW,225,0.2,3.8,72,0.00,,,0.00,WUHU216HW,2013-04-07 08:23:00,
2013-04-07 04:24:00,38.5,30.6,30.30,SSW,203,0.2,2.0,73,0.00,,,0.00,WUHU216HW,2013-04-07 08:24:00,
2013-04-07 04:26:00,38.5,30.6,30.30,WSW,248,0.9,2.0,73,0.00,,,0.00,WUHU216HW,2013-04-07 08:26:00,
2013-04-07 04:28:00,38.5,30.6,30.30,SSW,203,1.8,2.2,73,0.00,,,0.00,WUHU216HW,2013-04-07 08:28:00,
2013-04-07 04:29:00,38.5,30.6,30.31,SW,225,0.4,2.2,73,0.00,,,0.00,WUHU216HW,2013-04-07 08:29:00,
2013-04-07 04:32:00,38.5,30.6,30.30,SW,225,0.4,2.2,73,0.00,,,0.00,WUHU216HW,2013-04-07 08:32:00,
2013-04-07 04:33:00,38.5,30.6,30.30,SSW,203,0.4,2.2,73,0.00,,,0.00,WUHU216HW,2013-04-07 08:33:00,
2013-04-07 04:35:00,38.5,30.6,30.30,SW,225,0.2,2.2,73,0.00,,,0.00,WUHU216HW,2013-04-07 08:35:00,
2013-04-07 04:37:00,38.5,30.6,30.30,SSW,203,0.0,2.2,73,0.00,,,0.00,WUHU216HW,2013-04-07 08:37:00,
2013-04-07 04:39:00,38.3,30.4,30.30,SSW,203,0.4,1.8,73,0.00,,,0.00,WUHU216HW,2013-04-07 08:39:00,
2013-04-07 04:40:00,38.3,30.4,30.30,SW,225,0.2,1.8,73,0.00,,,0.00,WUHU216HW,2013-04-07 08:40:00,
2013-04-07 04:42:00,38.3,30.8,30.30,WSW,248,0.9,1.3,74,0.00,,,0.00,WUHU216HW,2013-04-07 08:42:00,
2013-04-07 04:44:00,38.3,30.4,30.31,WSW,248,1.1,1.3,73,0.00,,,0.00,WUHU216HW,2013-04-07 08:44:00,
2013-04-07 04:45:00,38.3,30.4,30.31,SW,225,1.1,1.3,73,0.00,,,0.00,WUHU216HW,2013-04-07 08:45:00,
2013-04-07 04:46:00,38.3,30.4,30.30,SW,225,0.4,1.3,73,0.00,,,0.00,WUHU216HW,2013-04-07 08:46:00,
2013-04-07 04:47:00,38.3,30.4,30.30,SW,225,1.1,1.3,73,0.00,,,0.00,WUHU216HW,2013-04-07 08:47:00,
2013-04-07 04:49:00,38.3,30.4,30.30,SW,225,0.4,1.8,73,0.00,,,0.00,WUHU216HW,2013-04-07 08:49:00,
2013-04-07 04:50:00,38.2,30.2,30.30,SSW,203,0.4,1.8,73,0.00,,,0.00,WUHU216HW,2013-04-07 08:50:00,
2013-04-07 04:51:00,38.2,30.2,30.30,SSW,203,0.0,1.8,73,0.00,,,0.00,WUHU216HW,2013-04-07 08:51:00,
2013-04-07 04:53:00,38.2,30.2,30.31,NW,315,2.0,2.0,73,0.00,,,0.00,WUHU216HW,2013-04-07 08:53:00,
2013-04-07 04:55:00,38.2,30.6,30.31,SW,225,0.4,2.0,74,0.00,,,0.00,WUHU216HW,2013-04-07 08:55:00,
2013-04-07 04:57:00,38.2,30.6,30.31,WSW,248,0.7,2.0,74,0.00,,,0.00,WUHU216HW,2013-04-07 08:57:00,
2013-04-07 04:58:00,38.2,30.6,30.31,SSW,203,1.1,2.0,74,0.00,,,0.00,WUHU216HW,2013-04-07 08:58:00,
2013-04-07 05:00:00,38.2,30.6,30.31,South,180,0.9,2.0,74,0.00,,,0.00,WUHU216HW,2013-04-07 09:00:00,
2013-04-07 05:02:00,38.0,30.4,30.31,SSW,203,0.0,2.0,74,0.00,,,0.00,WUHU216HW,2013-04-07 09:02:00,
2013-04-07 05:03:00,38.0,30.4,30.31,WSW,248,0.0,2.0,74,0.00,,,0.00,WUHU216HW,2013-04-07 09:03:00,
2013-04-07 05:05:00,38.0,30.4,30.31,SW,225,0.7,2.0,74,0.00,,,0.00,WUHU216HW,2013-04-07 09:05:00,
2013-04-07 05:06:00,38.0,30.4,30.31,SSW,203,0.4,2.0,74,0.00,,,0.00,WUHU216HW,2013-04-07 09:06:00,
2013-04-07 05:07:00,38.0,30.4,30.31,WSW,248,0.4,2.0,74,0.00,,,0.00,WUHU216HW,2013-04-07 09:07:00,
2013-04-07 05:08:00,38.0,30.4,30.31,SW,225,0.7,1.1,74,0.00,,,0.00,WUHU216HW,2013-04-07 09:08:00,
2013-04-07 05:10:00,38.0,30.4,30.31,SSW,203,0.4,1.1,74,0.00,,,0.00,WUHU216HW,2013-04-07 09:10:00,
2013-04-07 05:12:00,38.0,30.4,30.31,SSW,203,0.2,1.1,74,0.00,,,0.00,WUHU216HW,2013-04-07 09:12:00,
2013-04-07 05:13:00,38.0,30.4,30.31,SE,135,0.4,1.1,74,0.00,,,0.00,WUHU216HW,2013-04-07 09:13:00,
2013-04-07 05:15:00,38.0,30.4,30.30,SW,225,0.2,1.1,74,0.00,,,0.00,WUHU216HW,2013-04-07 09:15:00,
2013-04-07 05:17:00,38.0,30.4,30.31,SSE,158,1.1,2.2,74,0.00,,,0.00,WUHU216HW,2013-04-07 09:17:00,
2013-04-07 05:18:00,38.0,30.4,30.31,WSW,248,0.4,2.2,74,0.00,,,0.00,WUHU216HW,2013-04-07 09:18:00,
2013-04-07 05:20:00,38.0,30.4,30.31,SW,225,0.4,2.2,74,0.00,,,0.00,WUHU216HW,2013-04-07 09:20:00,
2013-04-07 05:22:00,38.0,30.4,30.31,SW,225,0.4,2.2,74,0.00,,,0.00,WUHU216HW,2013-04-07 09:22:00,
2013-04-07 05:23:00,38.0,30.4,30.31,SSW,203,0.4,2.2,74,0.00,,,0.00,WUHU216HW,2013-04-07 09:23:00,
2013-04-07 05:24:00,38.0,30.4,30.31,West,270,0.4,2.2,74,0.00,,,0.00,WUHU216HW,2013-04-07 09:24:00,
2013-04-07 05:25:00,38.0,30.4,30.30,West,270,1.8,2.2,74,0.00,,,0.00,WUHU216HW,2013-04-07 09:25:00,
2013-04-07 05:27:00,37.8,30.2,30.30,SSW,203,0.0,1.8,74,0.00,,,0.00,WUHU216HW,2013-04-07 09:27:00,
2013-04-07 05:28:00,37.8,30.2,30.30,SSW,203,0.0,1.8,74,0.00,,,0.00,WUHU216HW,2013-04-07 09:28:00,
2013-04-07 05:29:00,37.8,30.2,30.31,SSW,203,0.0,1.8,74,0.00,,,0.00,WUHU216HW,2013-04-07 09:29:00,
2013-04-07 05:30:00,37.8,30.2,30.31,SW,225,0.0,1.8,74,0.00,,,0.00,WUHU216HW,2013-04-07 09:30:00,
2013-04-07 05:32:00,37.8,30.2,30.30,SSW,203,0.0,1.8,74,0.00,,,0.00,WUHU216HW,2013-04-07 09:32:00,
2013-04-07 05:33:00,37.8,30.2,30.30,SSW,203,0.0,1.8,74,0.00,,,0.00,WUHU216HW,2013-04-07 09:33:00,
2013-04-07 05:34:00,37.8,30.2,30.31,SSW,203,0.7,1.8,74,0.00,,,0.00,WUHU216HW,2013-04-07 09:34:00,
2013-04-07 05:35:00,37.8,30.2,30.31,WSW,248,0.0,1.6,74,0.00,,,0.00,WUHU216HW,2013-04-07 09:35:00,
2013-04-07 05:37:00,37.8,30.2,30.31,SW,225,0.4,0.7,74,0.00,,,0.00,WUHU216HW,2013-04-07 09:37:00,
2013-04-07 05:38:00,37.8,30.2,30.31,SSW,203,0.2,0.7,74,0.00,,,0.00,WUHU216HW,2013-04-07 09:38:00,
2013-04-07 05:39:00,37.8,30.2,30.31,SW,225,0.0,0.7,74,0.00,,,0.00,WUHU216HW,2013-04-07 09:39:00,
2013-04-07 05:40:00,37.8,30.2,30.31,SSW,203,0.2,0.7,74,0.00,,,0.00,WUHU216HW,2013-04-07 09:40:00,
2013-04-07 05:43:00,37.6,30.4,30.31,SW,225,0.0,0.7,75,0.00,,,0.00,WUHU216HW,2013-04-07 09:43:00,
2013-04-07 05:45:00,37.6,30.4,30.31,SSW,203,0.0,0.4,75,0.00,,,0.00,WUHU216HW,2013-04-07 09:45:00,
2013-04-07 05:47:00,37.6,30.4,30.30,SSW,203,0.0,0.4,75,0.00,,,0.00,WUHU216HW,2013-04-07 09:47:00,
2013-04-07 05:48:00,37.6,30.4,30.30,SSW,203,0.0,0.4,75,0.00,,,0.00,WUHU216HW,2013-04-07 09:48:00,
2013-04-07 05:49:00,37.6,30.4,30.30,SSW,203,0.0,0.4,75,0.00,,,0.00,WUHU216HW,2013-04-07 09:49:00,
2013-04-07 05:52:00,37.6,30.4,30.30,WSW,248,0.0,0.4,75,0.00,,,0.00,WUHU216HW,2013-04-07 09:52:00,
2013-04-07 05:53:00,37.6,30.4,30.31,SW,225,0.0,0.4,75,0.00,,,0.00,WUHU216HW,2013-04-07 09:53:00,
2013-04-07 05:54:00,37.6,30.4,30.30,WSW,248,0.7,0.7,75,0.00,,,0.00,WUHU216HW,2013-04-07 09:54:00,
2013-04-07 05:57:00,37.8,30.9,30.31,SW,225,0.0,1.1,76,0.00,,,0.00,WUHU216HW,2013-04-07 09:57:00,
2013-04-07 05:58:00,37.8,30.9,30.31,SW,225,0.0,1.1,76,0.00,,,0.00,WUHU216HW,2013-04-07 09:58:00,
2013-04-07 05:59:00,37.8,30.9,30.31,SW,225,0.0,1.1,76,0.00,,,0.00,WUHU216HW,2013-04-07 09:59:00,
2013-04-07 06:02:00,37.8,30.9,30.30,SW,225,0.4,1.1,76,0.00,,,0.00,WUHU216HW,2013-04-07 10:02:00,
2013-04-07 06:03:00,37.8,30.9,30.30,West,270,0.4,1.1,76,0.00,,,0.00,WUHU216HW,2013-04-07 10:03:00,
2013-04-07 06:04:00,37.8,30.9,30.30,SW,225,0.0,1.1,76,0.00,,,0.00,WUHU216HW,2013-04-07 10:04:00,
2013-04-07 06:07:00,37.8,31.2,30.30,South,180,0.0,0.4,77,0.00,,,0.00,WUHU216HW,2013-04-07 10:07:00,
2013-04-07 06:08:00,37.8,31.2,30.30,SSE,158,0.0,0.4,77,0.00,,,0.00,WUHU216HW,2013-04-07 10:08:00,
2013-04-07 06:09:00,37.8,31.2,30.30,SSE,158,0.0,0.4,77,0.00,,,0.00,WUHU216HW,2013-04-07 10:09:00,
2013-04-07 06:13:00,38.0,31.4,30.31,SW,225,0.2,0.4,77,0.00,,,0.00,WUHU216HW,2013-04-07 10:13:00,
2013-04-07 06:17:00,38.0,31.1,30.30,SW,225,0.2,0.4,76,0.00,,,0.00,WUHU216HW,2013-04-07 10:17:00,
2013-04-07 06:18:00,38.0,31.1,30.30,SE,135,0.4,0.4,76,0.00,,,0.00,WUHU216HW,2013-04-07 10:18:00,
2013-04-07 06:19:00,38.0,31.1,30.31,SSW,203,0.2,0.4,76,0.00,,,0.00,WUHU216HW,2013-04-07 10:19:00,
2013-04-07 06:22:00,38.2,31.2,30.31,SSW,203,0.4,0.7,76,0.00,,,0.00,WUHU216HW,2013-04-07 10:22:00,
2013-04-07 06:23:00,38.2,31.2,30.31,SSW,203,0.4,0.7,76,0.00,,,0.00,WUHU216HW,2013-04-07 10:23:00,
2013-04-07 06:24:00,38.2,31.2,30.31,SSW,203,0.2,0.7,76,0.00,,,0.00,WUHU216HW,2013-04-07 10:24:00,
2013-04-07 06:27:00,38.3,31.4,30.31,SSW,203,0.0,0.7,76,0.00,,,0.00,WUHU216HW,2013-04-07 10:27:00,
2013-04-07 06:28:00,38.3,31.4,30.31,SSE,158,0.0,0.7,76,0.00,,,0.00,WUHU216HW,2013-04-07 10:28:00,
2013-04-07 06:30:00,38.3,31.4,30.31,SSW,203,0.4,0.7,76,0.00,,,0.00,WUHU216HW,2013-04-07 10:30:00,
2013-04-07 06:32:00,38.5,32.3,30.31,SSW,203,0.0,1.3,78,0.00,,,0.00,WUHU216HW,2013-04-07 10:32:00,
2013-04-07 06:33:00,38.5,32.3,30.31,SSW,203,0.2,1.3,78,0.00,,,0.00,WUHU216HW,2013-04-07 10:33:00,
2013-04-07 06:34:00,38.5,32.3,30.31,SW,225,0.4,1.3,78,0.00,,,0.00,WUHU216HW,2013-04-07 10:34:00,
2013-04-07 06:35:00,38.5,32.3,30.31,South,180,0.4,1.3,78,0.00,,,0.00,WUHU216HW,2013-04-07 10:35:00,
2013-04-07 06:37:00,38.5,32.3,30.31,SSW,203,0.0,1.3,78,0.00,,,0.00,WUHU216HW,2013-04-07 10:37:00,
2013-04-07 06:39:00,38.5,32.3,30.31,SW,225,0.2,1.3,78,0.00,,,0.00,WUHU216HW,2013-04-07 10:39:00,
2013-04-07 06:41:00,38.5,32.3,30.32,SSW,203,0.7,1.1,78,0.00,,,0.00,WUHU216HW,2013-04-07 10:41:00,
2013-04-07 06:43:00,38.7,32.5,30.32,South,180,0.2,1.1,78,0.00,,,0.00,WUHU216HW,2013-04-07 10:43:00,
2013-04-07 06:44:00,38.7,32.5,30.32,South,180,0.2,1.3,78,0.00,,,0.00,WUHU216HW,2013-04-07 10:44:00,
2013-04-07 06:47:00,38.7,32.5,30.32,SW,225,0.7,1.3,78,0.00,,,0.00,WUHU216HW,2013-04-07 10:47:00,
2013-04-07 06:48:00,38.9,32.9,30.31,SSW,203,0.4,1.3,79,0.00,,,0.00,WUHU216HW,2013-04-07 10:48:00,
2013-04-07 06:50:00,38.9,32.9,30.31,SSE,158,0.7,1.3,79,0.00,,,0.00,WUHU216HW,2013-04-07 10:50:00,
2013-04-07 06:52:00,39.1,33.1,30.31,South,180,0.7,1.3,79,0.00,,,0.00,WUHU216HW,2013-04-07 10:52:00,
2013-04-07 06:53:00,39.2,33.3,30.31,SSW,203,0.2,3.1,79,0.00,,,0.00,WUHU216HW,2013-04-07 10:53:00,
2013-04-07 06:55:00,39.2,33.3,30.31,SW,225,0.7,3.1,79,0.00,,,0.00,WUHU216HW,2013-04-07 10:55:00,
2013-04-07 06:57:00,39.2,33.3,30.31,SSW,203,0.0,3.1,79,0.00,,,0.00,WUHU216HW,2013-04-07 10:57:00,
2013-04-07 07:00:00,39.6,33.7,30.31,SW,225,0.4,3.1,79,0.00,,,0.00,WUHU216HW,2013-04-07 11:00:00,
2013-04-07 07:02:00,39.6,33.7,30.31,South,180,0.4,3.1,79,0.00,,,0.00,WUHU216HW,2013-04-07 11:02:00,
2013-04-07 07:05:00,39.8,33.9,30.31,South,180,0.7,1.1,79,0.00,,,0.00,WUHU216HW,2013-04-07 11:05:00,
2013-04-07 07:06:00,40.0,33.9,30.31,South,180,0.9,1.1,79,0.00,,,0.00,WUHU216HW,2013-04-07 11:06:00,
2013-04-07 07:07:00,40.0,33.9,30.31,SSE,158,1.6,1.6,79,0.00,,,0.00,WUHU216HW,2013-04-07 11:07:00,
2013-04-07 07:09:00,40.0,33.9,30.31,SE,135,0.7,1.6,79,0.00,,,0.00,WUHU216HW,2013-04-07 11:09:00,
2013-04-07 07:11:00,40.1,34.1,30.31,SW,225,0.2,1.6,79,0.00,,,0.00,WUHU216HW,2013-04-07 11:11:00,
2013-04-07 07:12:00,40.1,34.1,30.31,SSW,203,0.7,1.6,79,0.00,,,0.00,WUHU216HW,2013-04-07 11:12:00,
2013-04-07 07:15:00,40.5,34.5,30.31,SSE,158,0.0,2.0,79,0.00,,,0.00,WUHU216HW,2013-04-07 11:15:00,
2013-04-07 07:16:00,40.7,34.7,30.31,SSE,158,0.4,2.0,79,0.00,,,0.00,WUHU216HW,2013-04-07 11:16:00,
2013-04-07 07:17:00,40.7,34.7,30.31,SSE,158,0.7,2.0,79,0.00,,,0.00,WUHU216HW,2013-04-07 11:17:00,
2013-04-07 07:20:00,40.7,34.7,30.31,South,180,1.8,2.0,79,0.00,,,0.00,WUHU216HW,2013-04-07 11:20:00,
2013-04-07 07:22:00,40.9,34.8,30.31,SSE,158,0.9,2.2,79,0.00,,,0.00,WUHU216HW,2013-04-07 11:22:00,
2013-04-07 07:25:00,40.9,34.8,30.31,SSW,203,0.9,2.2,79,0.00,,,0.00,WUHU216HW,2013-04-07 11:25:00,
2013-04-07 07:27:00,41.0,34.9,30.31,SW,225,0.2,2.2,79,0.00,,,0.00,WUHU216HW,2013-04-07 11:27:00,
2013-04-07 07:28:00,41.0,34.9,30.31,SSW,203,1.1,2.2,79,0.00,,,0.00,WUHU216HW,2013-04-07 11:28:00,
2013-04-07 07:31:00,41.0,34.7,30.31,South,180,0.0,2.2,78,0.00,,,0.00,WUHU216HW,2013-04-07 11:31:00,
2013-04-07 07:32:00,41.0,34.7,30.31,SW,225,0.4,2.0,78,0.00,,,0.00,WUHU216HW,2013-04-07 11:32:00,
2013-04-07 07:33:00,41.0,34.7,30.31,SSW,203,0.0,2.0,78,0.00,,,0.00,WUHU216HW,2013-04-07 11:33:00,
2013-04-07 07:36:00,40.9,34.5,30.31,SE,135,0.0,2.0,78,0.00,,,0.00,WUHU216HW,2013-04-07 11:36:00,
2013-04-07 07:37:00,40.9,34.5,30.31,SE,135,0.4,2.0,78,0.00,,,0.00,WUHU216HW,2013-04-07 11:37:00,
2013-04-07 07:38:00,40.9,34.5,30.31,SE,135,0.2,2.0,78,0.00,,,0.00,WUHU216HW,2013-04-07 11:38:00,
2013-04-07 07:40:00,40.9,34.5,30.31,SE,135,0.4,1.6,78,0.00,,,0.00,WUHU216HW,2013-04-07 11:40:00,
2013-04-07 07:41:00,40.9,34.5,30.31,SSE,158,1.1,1.6,78,0.00,,,0.00,WUHU216HW,2013-04-07 11:41:00,
2013-04-07 07:42:00,40.9,34.5,30.31,SW,225,0.4,1.3,78,0.00,,,0.00,WUHU216HW,2013-04-07 11:42:00,
2013-04-07 07:43:00,40.9,34.5,30.31,SW,225,0.4,1.3,78,0.00,,,0.00,WUHU216HW,2013-04-07 11:43:00,
2013-04-07 07:45:00,41.0,34.7,30.30,SSE,158,0.0,1.3,78,0.00,,,0.00,WUHU216HW,2013-04-07 11:45:00,
2013-04-07 07:46:00,41.0,34.7,30.31,SE,135,0.9,1.3,78,0.00,,,0.00,WUHU216HW,2013-04-07 11:46:00,
2013-04-07 07:48:00,41.0,34.7,30.31,SSE,158,0.4,2.2,78,0.00,,,0.00,WUHU216HW,2013-04-07 11:48:00,
2013-04-07 07:49:00,41.0,34.9,30.31,SSE,158,0.2,2.2,79,0.00,,,0.00,WUHU216HW,2013-04-07 11:49:00,
2013-04-07 07:50:00,41.2,35.1,30.30,SSW,203,0.4,2.2,79,0.00,,,0.00,WUHU216HW,2013-04-07 11:50:00,
2013-04-07 07:52:00,41.2,35.1,30.31,ESE,113,1.8,2.2,79,0.00,,,0.00,WUHU216HW,2013-04-07 11:52:00,
2013-04-07 07:53:00,41.4,35.3,30.31,SSW,203,2.2,2.2,79,0.00,,,0.00,WUHU216HW,2013-04-07 11:53:00,
2013-04-07 07:55:00,41.8,35.6,30.31,SE,135,0.4,2.2,79,0.00,,,0.00,WUHU216HW,2013-04-07 11:55:00,
2013-04-07 07:57:00,42.1,36.0,30.31,South,180,0.7,2.2,79,0.00,,,0.00,WUHU216HW,2013-04-07 11:57:00,
2013-04-07 07:59:00,42.5,36.4,30.31,South,180,2.5,2.5,79,0.00,,,0.00,WUHU216HW,2013-04-07 11:59:00,
2013-04-07 08:00:00,42.5,36.4,30.31,SSE,158,1.3,4.3,79,0.00,,,0.00,WUHU216HW,2013-04-07 12:00:00,
2013-04-07 08:02:00,42.8,36.7,30.31,SSW,203,0.9,4.3,79,0.00,,,0.00,WUHU216HW,2013-04-07 12:02:00,
2013-04-07 08:04:00,43.2,37.1,30.31,SW,225,0.4,4.3,79,0.00,,,0.00,WUHU216HW,2013-04-07 12:04:00,
2013-04-07 08:06:00,43.4,37.0,30.31,SSW,203,1.6,4.3,78,0.00,,,0.00,WUHU216HW,2013-04-07 12:06:00,
2013-04-07 08:07:00,43.6,37.2,30.31,SSE,158,1.3,4.3,78,0.00,,,0.00,WUHU216HW,2013-04-07 12:07:00,
2013-04-07 08:08:00,43.6,37.2,30.31,SSW,203,0.7,4.3,78,0.00,,,0.00,WUHU216HW,2013-04-07 12:08:00,
2013-04-07 08:10:00,43.7,37.0,30.32,South,180,0.7,4.3,77,0.00,,,0.00,WUHU216HW,2013-04-07 12:10:00,
2013-04-07 08:12:00,44.1,37.4,30.32,SSW,203,2.2,3.4,77,0.00,,,0.00,WUHU216HW,2013-04-07 12:12:00,
2013-04-07 08:13:00,44.3,37.5,30.31,SSW,203,1.1,3.4,77,0.00,,,0.00,WUHU216HW,2013-04-07 12:13:00,
2013-04-07 08:15:00,44.3,37.5,30.31,WSW,248,1.8,3.4,77,0.00,,,0.00,WUHU216HW,2013-04-07 12:15:00,
2013-04-07 08:17:00,44.6,37.9,30.32,SSW,203,1.1,2.2,77,0.00,,,0.00,WUHU216HW,2013-04-07 12:17:00,
2013-04-07 08:19:00,45.0,37.9,30.32,SSW,203,0.7,2.9,76,0.00,,,0.00,WUHU216HW,2013-04-07 12:19:00,
2013-04-07 08:20:00,45.0,37.9,30.32,SSW,203,1.1,2.9,76,0.00,,,0.00,WUHU216HW,2013-04-07 12:20:00,
2013-04-07 08:22:00,45.5,38.8,30.32,ESE,113,0.7,2.9,77,0.00,,,0.00,WUHU216HW,2013-04-07 12:22:00,
2013-04-07 08:25:00,45.9,38.8,30.32,South,180,1.1,2.9,76,0.00,,,0.00,WUHU216HW,2013-04-07 12:25:00,
2013-04-07 08:26:00,45.9,38.8,30.32,SW,225,1.3,2.9,76,0.00,,,0.00,WUHU216HW,2013-04-07 12:26:00,
2013-04-07 08:27:00,46.3,38.8,30.32,SE,135,1.8,2.9,75,0.00,,,0.00,WUHU216HW,2013-04-07 12:27:00,
2013-04-07 08:31:00,46.6,39.2,30.31,SSW,203,2.7,2.7,75,0.00,,,0.00,WUHU216HW,2013-04-07 12:31:00,
2013-04-07 08:32:00,46.8,39.3,30.32,SSW,203,1.1,2.7,75,0.00,,,0.00,WUHU216HW,2013-04-07 12:32:00,
2013-04-07 08:33:00,46.8,39.3,30.32,South,180,1.3,2.7,75,0.00,,,0.00,WUHU216HW,2013-04-07 12:33:00,
2013-04-07 08:36:00,47.2,39.2,30.32,SSW,203,0.7,2.7,74,0.00,,,0.00,WUHU216HW,2013-04-07 12:36:00,
2013-04-07 08:38:00,47.5,39.2,30.32,South,180,1.8,2.7,73,0.00,,,0.00,WUHU216HW,2013-04-07 12:38:00,
2013-04-07 08:41:00,47.7,39.1,30.32,SW,225,1.1,2.7,72,0.00,,,0.00,WUHU216HW,2013-04-07 12:41:00,
2013-04-07 08:43:00,47.9,39.2,30.32,SSW,203,1.1,2.5,72,0.00,,,0.00,WUHU216HW,2013-04-07 12:43:00,
2013-04-07 08:46:00,48.2,39.6,30.32,South,180,0.4,2.5,72,0.00,,,0.00,WUHU216HW,2013-04-07 12:46:00,
2013-04-07 08:47:00,48.4,39.8,30.32,SW,225,2.0,3.4,72,0.00,,,0.00,WUHU216HW,2013-04-07 12:47:00,
2013-04-07 08:48:00,48.6,40.0,30.32,ESE,113,2.9,3.4,72,0.00,,,0.00,WUHU216HW,2013-04-07 12:48:00,
2013-04-07 08:49:00,48.6,40.0,30.32,SE,135,0.4,3.4,72,0.00,,,0.00,WUHU216HW,2013-04-07 12:49:00,
2013-04-07 08:52:00,49.0,40.0,30.31,South,180,1.1,3.4,71,0.00,,,0.00,WUHU216HW,2013-04-07 12:52:00,
2013-04-07 08:53:00,49.1,40.2,30.31,SE,135,1.6,3.4,71,0.00,,,0.00,WUHU216HW,2013-04-07 12:53:00,
2013-04-07 08:54:00,49.3,40.3,30.31,SSW,203,1.3,3.4,71,0.00,,,0.00,WUHU216HW,2013-04-07 12:54:00,
2013-04-07 08:57:00,49.5,40.1,30.31,SE,135,0.9,4.0,70,0.00,,,0.00,WUHU216HW,2013-04-07 12:57:00,
2013-04-07 08:58:00,49.7,40.3,30.31,SSW,203,0.7,4.0,70,0.00,,,0.00,WUHU216HW,2013-04-07 12:58:00,
2013-04-07 09:00:00,49.7,40.3,30.31,SSW,203,2.9,4.0,70,0.00,,,0.00,WUHU216HW,2013-04-07 13:00:00,
2013-04-07 09:03:00,50.0,40.3,30.31,SSE,158,0.7,4.0,69,0.00,,,0.00,WUHU216HW,2013-04-07 13:03:00,
2013-04-07 09:05:00,50.0,40.3,30.31,South,180,2.5,4.0,69,0.00,,,0.00,WUHU216HW,2013-04-07 13:05:00,
2013-04-07 09:08:00,49.9,39.7,30.31,South,180,2.2,3.4,68,0.00,,,0.00,WUHU216HW,2013-04-07 13:08:00,
2013-04-07 09:09:00,49.9,39.7,30.31,SSW,203,2.0,3.4,68,0.00,,,0.00,WUHU216HW,2013-04-07 13:09:00,
2013-04-07 09:10:00,50.0,39.9,30.31,SSE,158,2.5,4.0,68,0.00,,,0.00,WUHU216HW,2013-04-07 13:10:00,
2013-04-07 09:13:00,49.9,39.7,30.30,SW,225,1.1,4.0,68,0.00,,,0.00,WUHU216HW,2013-04-07 13:13:00,
2013-04-07 09:14:00,49.9,39.7,30.30,West,270,0.9,4.0,68,0.00,,,0.00,WUHU216HW,2013-04-07 13:14:00,
2013-04-07 09:15:00,49.9,39.7,30.30,SSW,203,0.9,4.0,68,0.00,,,0.00,WUHU216HW,2013-04-07 13:15:00,
2013-04-07 09:16:00,49.9,39.7,30.30,SW,225,2.0,4.0,68,0.00,,,0.00,WUHU216HW,2013-04-07 13:16:00,
2013-04-07 09:19:00,50.0,39.9,30.30,West,270,2.0,4.0,68,0.00,,,0.00,WUHU216HW,2013-04-07 13:19:00,
2013-04-07 09:21:00,50.0,39.9,30.30,South,180,2.5,4.0,68,0.00,,,0.00,WUHU216HW,2013-04-07 13:21:00,
2013-04-07 09:22:00,50.0,39.9,30.30,ENE,68,3.6,3.6,68,0.00,,,0.00,WUHU216HW,2013-04-07 13:22:00,
2013-04-07 09:24:00,49.7,39.2,30.30,WSW,248,1.1,4.5,67,0.00,,,0.00,WUHU216HW,2013-04-07 13:24:00,
2013-04-07 09:26:00,49.7,39.2,30.30,SW,225,1.8,4.5,67,0.00,,,0.00,WUHU216HW,2013-04-07 13:26:00,
2013-04-07 09:27:00,49.7,39.5,30.30,ENE,68,3.1,4.5,68,0.00,,,0.00,WUHU216HW,2013-04-07 13:27:00,
2013-04-07 09:29:00,49.7,39.5,30.30,WNW,293,1.8,4.7,68,0.00,,,0.00,WUHU216HW,2013-04-07 13:29:00,
2013-04-07 09:32:00,49.7,39.5,30.30,SE,135,1.8,4.7,68,0.00,,,0.00,WUHU216HW,2013-04-07 13:32:00,
2013-04-07 09:34:00,49.9,39.7,30.30,SSW,203,3.8,4.7,68,0.00,,,0.00,WUHU216HW,2013-04-07 13:34:00,
2013-04-07 09:37:00,49.9,39.7,30.30,West,270,3.8,4.7,68,0.00,,,0.00,WUHU216HW,2013-04-07 13:37:00,
2013-04-07 09:38:00,49.9,39.7,30.30,SSW,203,3.4,4.7,68,0.00,,,0.00,WUHU216HW,2013-04-07 13:38:00,
2013-04-07 09:40:00,49.9,39.3,30.30,SSE,158,4.0,4.7,67,0.00,,,0.00,WUHU216HW,2013-04-07 13:40:00,
2013-04-07 09:42:00,49.7,39.5,30.30,SSW,203,2.9,4.9,68,0.00,,,0.00,WUHU216HW,2013-04-07 13:42:00,
2013-04-07 09:43:00,49.9,39.7,30.30,SW,225,1.3,4.9,68,0.00,,,0.00,WUHU216HW,2013-04-07 13:43:00,
2013-04-07 09:44:00,49.9,39.7,30.30,WSW,248,2.0,4.9,68,0.00,,,0.00,WUHU216HW,2013-04-07 13:44:00,
2013-04-07 09:45:00,49.9,39.7,30.30,SSW,203,2.2,4.9,68,0.00,,,0.00,WUHU216HW,2013-04-07 13:45:00,
2013-04-07 09:48:00,49.9,39.7,30.30,North,0,2.7,4.9,68,0.00,,,0.00,WUHU216HW,2013-04-07 13:48:00,
2013-04-07 09:49:00,50.0,39.9,30.30,SW,225,2.0,4.9,68,0.00,,,0.00,WUHU216HW,2013-04-07 13:49:00,
2013-04-07 09:50:00,50.0,39.9,30.30,WSW,248,1.8,4.9,68,0.00,,,0.00,WUHU216HW,2013-04-07 13:50:00,
2013-04-07 09:51:00,50.2,40.1,30.30,SW,225,1.6,4.7,68,0.00,,,0.00,WUHU216HW,2013-04-07 13:51:00,
2013-04-07 09:53:00,50.2,40.1,30.30,South,180,3.1,4.7,68,0.00,,,0.00,WUHU216HW,2013-04-07 13:53:00,
2013-04-07 09:54:00,50.2,39.7,30.30,SW,225,1.1,4.7,67,0.00,,,0.00,WUHU216HW,2013-04-07 13:54:00,
2013-04-07 09:55:00,50.4,39.9,30.30,South,180,2.5,4.7,67,0.00,,,0.00,WUHU216HW,2013-04-07 13:55:00,
2013-04-07 09:57:00,50.4,40.2,30.30,WSW,248,1.3,4.7,68,0.00,,,0.00,WUHU216HW,2013-04-07 13:57:00,
2013-04-07 09:58:00,50.4,39.9,30.30,SSW,203,1.8,4.7,67,0.00,,,0.00,WUHU216HW,2013-04-07 13:58:00,
2013-04-07 10:00:00,50.4,39.9,30.29,SSE,158,4.3,4.7,67,0.00,,,0.00,WUHU216HW,2013-04-07 14:00:00,
2013-04-07 10:03:00,50.4,39.9,30.29,WSW,248,2.5,4.3,67,0.00,,,0.00,WUHU216HW,2013-04-07 14:03:00,
2013-04-07 10:04:00,50.6,40.4,30.29,WSW,248,1.6,4.3,68,0.00,,,0.00,WUHU216HW,2013-04-07 14:04:00,
2013-04-07 10:05:00,50.6,40.4,30.29,WSW,248,2.5,4.3,68,0.00,,,0.00,WUHU216HW,2013-04-07 14:05:00,
2013-04-07 10:08:00,50.8,40.6,30.30,ENE,68,4.0,4.9,68,0.00,,,0.00,WUHU216HW,2013-04-07 14:08:00,
2013-04-07 10:09:00,50.8,40.6,30.30,SSW,203,2.7,4.9,68,0.00,,,0.00,WUHU216HW,2013-04-07 14:09:00,
2013-04-07 10:10:00,50.8,40.6,30.30,SW,225,3.8,4.9,68,0.00,,,0.00,WUHU216HW,2013-04-07 14:10:00,
2013-04-07 10:13:00,50.8,40.6,30.30,ESE,113,2.5,4.9,68,0.00,,,0.00,WUHU216HW,2013-04-07 14:13:00,
2013-04-07 10:14:00,50.8,40.6,30.29,WSW,248,4.9,4.9,68,0.00,,,0.00,WUHU216HW,2013-04-07 14:14:00,
2013-04-07 10:15:00,50.8,40.6,30.29,WSW,248,2.9,4.9,68,0.00,,,0.00,WUHU216HW,2013-04-07 14:15:00,
2013-04-07 10:18:00,50.8,40.6,30.29,SSE,158,1.6,4.9,68,0.00,,,0.00,WUHU216HW,2013-04-07 14:18:00,
2013-04-07 10:19:00,50.9,40.8,30.29,South,180,1.1,4.9,68,0.00,,,0.00,WUHU216HW,2013-04-07 14:19:00,
2013-04-07 10:20:00,50.9,40.8,30.29,South,180,1.8,4.9,68,0.00,,,0.00,WUHU216HW,2013-04-07 14:20:00,
2013-04-07 10:23:00,51.3,41.1,30.29,SW,225,3.4,4.9,68,0.00,,,0.00,WUHU216HW,2013-04-07 14:23:00,
2013-04-07 10:24:00,51.3,41.1,30.29,SW,225,2.7,4.9,68,0.00,,,0.00,WUHU216HW,2013-04-07 14:24:00,
2013-04-07 10:25:00,51.3,41.1,30.29,West,270,1.8,4.5,68,0.00,,,0.00,WUHU216HW,2013-04-07 14:25:00,
2013-04-07 10:28:00,51.5,40.9,30.29,SSE,158,1.8,4.5,67,0.00,,,0.00,WUHU216HW,2013-04-07 14:28:00,
2013-04-07 10:30:00,51.5,40.9,30.29,WSW,248,3.6,5.4,67,0.00,,,0.00,WUHU216HW,2013-04-07 14:30:00,
2013-04-07 10:31:00,51.5,40.9,30.29,SSE,158,6.7,6.7,67,0.00,,,0.00,WUHU216HW,2013-04-07 14:31:00,
2013-04-07 10:33:00,51.7,41.0,30.29,SSE,158,3.4,6.7,67,0.00,,,0.00,WUHU216HW,2013-04-07 14:33:00,
2013-04-07 10:35:00,51.5,40.9,30.29,SSE,158,3.6,6.7,67,0.00,,,0.00,WUHU216HW,2013-04-07 14:35:00,
2013-04-07 10:36:00,51.7,41.0,30.28,South,180,2.7,6.7,67,0.00,,,0.00,WUHU216HW,2013-04-07 14:36:00,
2013-04-07 10:37:00,51.7,41.0,30.28,SW,225,2.5,6.7,67,0.00,,,0.00,WUHU216HW,2013-04-07 14:37:00,
2013-04-07 10:39:00,51.7,41.0,30.28,WSW,248,3.4,6.7,67,0.00,,,0.00,WUHU216HW,2013-04-07 14:39:00,
2013-04-07 10:40:00,51.7,41.0,30.28,SW,225,2.5,6.7,67,0.00,,,0.00,WUHU216HW,2013-04-07 14:40:00,
2013-04-07 10:42:00,51.7,41.0,30.28,WSW,248,2.9,6.9,67,0.00,,,0.00,WUHU216HW,2013-04-07 14:42:00,
2013-04-07 10:44:00,51.7,41.0,30.28,SSE,158,1.8,6.9,67,0.00,,,0.00,WUHU216HW,2013-04-07 14:44:00,
2013-04-07 10:45:00,51.8,41.2,30.29,SE,135,2.0,6.9,67,0.00,,,0.00,WUHU216HW,2013-04-07 14:45:00,
2013-04-07 10:47:00,51.8,41.2,30.29,SW,225,1.8,6.9,67,0.00,,,0.00,WUHU216HW,2013-04-07 14:47:00,
2013-04-07 10:48:00,52.0,41.4,30.29,WSW,248,2.2,6.9,67,0.00,,,0.00,WUHU216HW,2013-04-07 14:48:00,
2013-04-07 10:50:00,52.2,41.6,30.29,SW,225,2.2,6.9,67,0.00,,,0.00,WUHU216HW,2013-04-07 14:50:00,
2013-04-07 10:52:00,52.6,42.0,30.29,WSW,248,3.4,4.7,67,0.00,,,0.00,WUHU216HW,2013-04-07 14:52:00,
2013-04-07 10:53:00,52.6,42.0,30.29,SW,225,4.0,4.7,67,0.00,,,0.00,WUHU216HW,2013-04-07 14:53:00,
2013-04-07 10:55:00,52.7,42.1,30.29,SSW,203,1.6,4.9,67,0.00,,,0.00,WUHU216HW,2013-04-07 14:55:00,
2013-04-07 10:56:00,52.7,42.1,30.29,SSE,158,1.1,4.9,67,0.00,,,0.00,WUHU216HW,2013-04-07 14:56:00,
2013-04-07 10:57:00,52.9,41.9,30.28,WSW,248,3.8,4.9,66,0.00,,,0.00,WUHU216HW,2013-04-07 14:57:00,
2013-04-07 10:59:00,53.1,42.0,30.29,SSE,158,3.1,4.9,66,0.00,,,0.00,WUHU216HW,2013-04-07 14:59:00,
2013-04-07 11:00:00,53.1,41.6,30.28,SSW,203,2.5,4.9,65,0.00,,,0.00,WUHU216HW,2013-04-07 15:00:00,
2013-04-07 11:01:00,53.3,41.8,30.28,ESE,113,4.3,4.9,65,0.00,,,0.00,WUHU216HW,2013-04-07 15:01:00,
2013-04-07 11:03:00,53.3,41.8,30.28,SW,225,2.5,5.8,65,0.00,,,0.00,WUHU216HW,2013-04-07 15:03:00,
2013-04-07 11:05:00,53.3,41.8,30.28,SSE,158,2.5,5.8,65,0.00,,,0.00,WUHU216HW,2013-04-07 15:05:00,
2013-04-07 11:07:00,53.3,42.2,30.28,South,180,4.0,5.8,66,0.00,,,0.00,WUHU216HW,2013-04-07 15:07:00,
2013-04-07 11:08:00,53.5,41.9,30.28,SSW,203,3.1,5.8,65,0.00,,,0.00,WUHU216HW,2013-04-07 15:08:00,
2013-04-07 11:10:00,53.6,42.5,30.28,South,180,1.8,5.8,66,0.00,,,0.00,WUHU216HW,2013-04-07 15:10:00,
2013-04-07 11:12:00,53.8,42.7,30.28,West,270,2.7,5.8,66,0.00,,,0.00,WUHU216HW,2013-04-07 15:12:00,
2013-04-07 11:13:00,54.0,42.8,30.28,SW,225,1.6,4.5,66,0.00,,,0.00,WUHU216HW,2013-04-07 15:13:00,
2013-04-07 11:15:00,54.2,42.7,30.28,SSW,203,2.7,4.5,65,0.00,,,0.00,WUHU216HW,2013-04-07 15:15:00,
2013-04-07 11:17:00,54.4,42.9,30.28,SSW,203,3.1,4.5,65,0.00,,,0.00,WUHU216HW,2013-04-07 15:17:00,
2013-04-07 11:18:00,54.4,42.4,30.28,SW,225,2.5,3.1,64,0.00,,,0.00,WUHU216HW,2013-04-07 15:18:00,
2013-04-07 11:20:00,54.4,42.9,30.28,WSW,248,3.6,3.6,65,0.00,,,0.00,WUHU216HW,2013-04-07 15:20:00,
2013-04-07 11:22:00,54.5,42.6,30.28,West,270,4.5,4.5,64,0.00,,,0.00,WUHU216HW,2013-04-07 15:22:00,
2013-04-07 11:23:00,54.5,42.6,30.28,SW,225,1.3,4.5,64,0.00,,,0.00,WUHU216HW,2013-04-07 15:23:00,
2013-04-07 11:26:00,54.5,42.6,30.27,SW,225,1.8,4.5,64,0.00,,,0.00,WUHU216HW,2013-04-07 15:26:00,
2013-04-07 11:27:00,54.7,42.8,30.27,SW,225,4.0,4.5,64,0.00,,,0.00,WUHU216HW,2013-04-07 15:27:00,
2013-04-07 11:28:00,54.9,42.9,30.27,SSE,158,2.5,4.5,64,0.00,,,0.00,WUHU216HW,2013-04-07 15:28:00,
2013-04-07 11:29:00,54.9,42.9,30.27,WNW,293,2.5,4.5,64,0.00,,,0.00,WUHU216HW,2013-04-07 15:29:00,
2013-04-07 11:31:00,54.9,42.5,30.27,South,180,4.7,4.7,63,0.00,,,0.00,WUHU216HW,2013-04-07 15:31:00,
2013-04-07 11:33:00,54.7,42.3,30.27,SSW,203,3.8,4.7,63,0.00,,,0.00,WUHU216HW,2013-04-07 15:33:00,
2013-04-07 11:35:00,54.5,42.6,30.27,WNW,293,3.4,4.7,64,0.00,,,0.00,WUHU216HW,2013-04-07 15:35:00,
2013-04-07 11:37:00,54.7,42.8,30.27,SW,225,3.1,4.7,64,0.00,,,0.00,WUHU216HW,2013-04-07 15:37:00,
2013-04-07 11:38:00,54.9,42.9,30.27,SW,225,4.7,5.1,64,0.00,,,0.00,WUHU216HW,2013-04-07 15:38:00,
2013-04-07 11:40:00,55.1,43.1,30.26,SSW,203,3.4,5.1,64,0.00,,,0.00,WUHU216HW,2013-04-07 15:40:00,
2013-04-07 11:42:00,55.1,43.1,30.26,SSW,203,2.5,5.1,64,0.00,,,0.00,WUHU216HW,2013-04-07 15:42:00,
2013-04-07 11:43:00,55.3,43.3,30.26,SSE,158,2.5,5.1,64,0.00,,,0.00,WUHU216HW,2013-04-07 15:43:00,
2013-04-07 11:44:00,55.3,43.3,30.26,SW,225,2.9,5.1,64,0.00,,,0.00,WUHU216HW,2013-04-07 15:44:00,
2013-04-07 11:45:00,55.3,43.3,30.26,SW,225,2.5,5.4,64,0.00,,,0.00,WUHU216HW,2013-04-07 15:45:00,
2013-04-07 11:47:00,55.4,43.0,30.26,SW,225,4.0,5.4,63,0.00,,,0.00,WUHU216HW,2013-04-07 15:47:00,
2013-04-07 11:48:00,55.4,43.0,30.26,WSW,248,2.2,5.4,63,0.00,,,0.00,WUHU216HW,2013-04-07 15:48:00,
2013-04-07 11:50:00,55.4,43.0,30.26,South,180,2.5,5.4,63,0.00,,,0.00,WUHU216HW,2013-04-07 15:50:00,
2013-04-07 11:53:00,55.8,43.4,30.25,South,180,6.0,6.0,63,0.00,,,0.00,WUHU216HW,2013-04-07 15:53:00,
2013-04-07 11:55:00,55.8,43.4,30.25,SW,225,2.2,6.0,63,0.00,,,0.00,WUHU216HW,2013-04-07 15:55:00,
2013-04-07 11:58:00,56.0,43.6,30.25,SSE,158,4.0,6.0,63,0.00,,,0.00,WUHU216HW,2013-04-07 15:58:00,
2013-04-07 12:00:00,56.0,43.6,30.25,SE,135,2.9,6.0,63,0.00,,,0.00,WUHU216HW,2013-04-07 16:00:00,
2013-04-07 12:01:00,55.8,43.4,30.25,SE,135,2.2,6.0,63,0.00,,,0.00,WUHU216HW,2013-04-07 16:01:00,
2013-04-07 12:03:00,56.2,43.8,30.25,SE,135,2.7,5.4,63,0.00,,,0.00,WUHU216HW,2013-04-07 16:03:00,
2013-04-07 12:05:00,56.5,44.0,30.25,SSW,203,1.8,5.4,63,0.00,,,0.00,WUHU216HW,2013-04-07 16:05:00,
2013-04-07 12:06:00,56.5,44.0,30.25,SW,225,2.5,5.4,63,0.00,,,0.00,WUHU216HW,2013-04-07 16:06:00,
2013-04-07 12:08:00,56.7,43.8,30.25,SW,225,2.2,5.4,62,0.00,,,0.00,WUHU216HW,2013-04-07 16:08:00,
2013-04-07 12:09:00,56.9,44.0,30.25,South,180,2.5,4.7,62,0.00,,,0.00,WUHU216HW,2013-04-07 16:09:00,
2013-04-07 12:10:00,57.1,44.2,30.25,SW,225,4.5,4.7,62,0.00,,,0.00,WUHU216HW,2013-04-07 16:10:00,
2013-04-07 12:12:00,57.1,44.2,30.25,South,180,2.5,4.9,62,0.00,,,0.00,WUHU216HW,2013-04-07 16:12:00,
2013-04-07 12:13:00,57.1,44.2,30.25,SSE,158,2.9,5.1,62,0.00,,,0.00,WUHU216HW,2013-04-07 16:13:00,
2013-04-07 12:15:00,57.1,43.7,30.25,South,180,3.8,5.1,61,0.00,,,0.00,WUHU216HW,2013-04-07 16:15:00,
2013-04-07 12:17:00,57.2,43.9,30.24,SSW,203,3.1,6.3,61,0.00,,,0.00,WUHU216HW,2013-04-07 16:17:00,
2013-04-07 12:18:00,57.1,43.7,30.24,SSE,158,2.9,6.3,61,0.00,,,0.00,WUHU216HW,2013-04-07 16:18:00,
2013-04-07 12:20:00,57.2,43.9,30.24,SW,225,1.6,6.3,61,0.00,,,0.00,WUHU216HW,2013-04-07 16:20:00,
2013-04-07 12:21:00,57.2,43.9,30.24,SSW,203,2.2,6.3,61,0.00,,,0.00,WUHU216HW,2013-04-07 16:21:00,
2013-04-07 12:23:00,57.4,44.6,30.24,SE,135,2.7,6.3,62,0.00,,,0.00,WUHU216HW,2013-04-07 16:23:00,
2013-04-07 12:24:00,57.6,44.3,30.24,SSW,203,3.4,6.3,61,0.00,,,0.00,WUHU216HW,2013-04-07 16:24:00,
2013-04-07 12:26:00,57.6,43.9,30.24,South,180,3.4,6.3,60,0.00,,,0.00,WUHU216HW,2013-04-07 16:26:00,
2013-04-07 12:29:00,57.6,43.9,30.23,SSE,158,2.0,5.4,60,0.00,,,0.00,WUHU216HW,2013-04-07 16:29:00,
2013-04-07 12:30:00,57.8,44.0,30.23,South,180,4.7,5.4,60,0.00,,,0.00,WUHU216HW,2013-04-07 16:30:00,
2013-04-07 12:31:00,57.8,43.6,30.23,SW,225,2.7,5.4,59,0.00,,,0.00,WUHU216HW,2013-04-07 16:31:00,
2013-04-07 12:32:00,57.6,43.9,30.23,East,90,2.5,5.4,60,0.00,,,0.00,WUHU216HW,2013-04-07 16:32:00,
2013-04-07 12:34:00,57.8,44.5,30.23,SSW,203,3.6,5.4,61,0.00,,,0.00,WUHU216HW,2013-04-07 16:34:00,
2013-04-07 12:35:00,57.8,44.0,30.23,SW,225,2.5,5.4,60,0.00,,,0.00,WUHU216HW,2013-04-07 16:35:00,
2013-04-07 12:37:00,57.8,43.6,30.23,SSW,203,2.9,4.7,59,0.00,,,0.00,WUHU216HW,2013-04-07 16:37:00,
2013-04-07 12:39:00,57.8,44.0,30.22,SW,225,3.4,4.7,60,0.00,,,0.00,WUHU216HW,2013-04-07 16:39:00,
2013-04-07 12:40:00,57.8,44.0,30.22,SE,135,1.8,3.8,60,0.00,,,0.00,WUHU216HW,2013-04-07 16:40:00,
2013-04-07 12:42:00,58.0,44.2,30.22,ESE,113,2.5,3.8,60,0.00,,,0.00,WUHU216HW,2013-04-07 16:42:00,
2013-04-07 12:45:00,58.1,43.9,30.22,SW,225,2.2,4.7,59,0.00,,,0.00,WUHU216HW,2013-04-07 16:45:00,
2013-04-07 12:48:00,58.3,44.1,30.22,WNW,293,5.4,5.8,59,0.00,,,0.00,WUHU216HW,2013-04-07 16:48:00,
2013-04-07 12:50:00,58.1,43.9,30.22,SW,225,1.8,5.8,59,0.00,,,0.00,WUHU216HW,2013-04-07 16:50:00,
2013-04-07 12:53:00,58.1,43.9,30.22,NNE,23,4.3,5.8,59,0.00,,,0.00,WUHU216HW,2013-04-07 16:53:00,
2013-04-07 12:55:00,58.0,43.3,30.22,West,270,3.4,5.8,58,0.00,,,0.00,WUHU216HW,2013-04-07 16:55:00,
2013-04-07 12:58:00,57.8,43.6,30.22,South,180,2.5,5.6,59,0.00,,,0.00,WUHU216HW,2013-04-07 16:58:00,
2013-04-07 13:00:00,57.8,43.6,30.22,SSW,203,2.2,5.6,59,0.00,,,0.00,WUHU216HW,2013-04-07 17:00:00,
2013-04-07 13:01:00,57.8,44.0,30.21,SSE,158,3.6,5.6,60,0.00,,,0.00,WUHU216HW,2013-04-07 17:01:00,
2013-04-07 13:02:00,57.8,44.0,30.21,South,180,2.5,5.6,60,0.00,,,0.00,WUHU216HW,2013-04-07 17:02:00,
2013-04-07 13:03:00,58.0,44.2,30.21,ESE,113,2.7,5.4,60,0.00,,,0.00,WUHU216HW,2013-04-07 17:03:00,
2013-04-07 13:05:00,58.0,43.7,30.21,WSW,248,3.6,6.3,59,0.00,,,0.00,WUHU216HW,2013-04-07 17:05:00,
2013-04-07 13:07:00,58.0,43.7,30.21,South,180,5.1,6.3,59,0.00,,,0.00,WUHU216HW,2013-04-07 17:07:00,
2013-04-07 13:09:00,58.0,43.7,30.21,South,180,2.5,6.9,59,0.00,,,0.00,WUHU216HW,2013-04-07 17:09:00,
2013-04-07 13:10:00,58.0,43.7,30.20,SSE,158,5.6,6.9,59,0.00,,,0.00,WUHU216HW,2013-04-07 17:10:00,
2013-04-07 13:12:00,57.6,42.9,30.21,NNW,338,5.6,6.9,58,0.00,,,0.00,WUHU216HW,2013-04-07 17:12:00,
2013-04-07 13:14:00,57.4,43.3,30.20,SSW,203,3.4,6.9,59,0.00,,,0.00,WUHU216HW,2013-04-07 17:14:00,
2013-04-07 13:17:00,57.2,43.1,30.20,SSE,158,4.9,6.9,59,0.00,,,0.00,WUHU216HW,2013-04-07 17:17:00,
2013-04-07 13:20:00,57.2,43.6,30.20,South,180,2.7,6.0,60,0.00,,,0.00,WUHU216HW,2013-04-07 17:20:00,
2013-04-07 13:22:00,57.2,43.6,30.20,ESE,113,4.0,5.8,60,0.00,,,0.00,WUHU216HW,2013-04-07 17:22:00,
2013-04-07 13:23:00,57.2,43.6,30.20,SW,225,4.0,5.8,60,0.00,,,0.00,WUHU216HW,2013-04-07 17:23:00,
2013-04-07 13:25:00,57.2,43.6,30.20,WSW,248,3.4,4.9,60,0.00,,,0.00,WUHU216HW,2013-04-07 17:25:00,
2013-04-07 13:27:00,57.2,43.6,30.20,SSE,158,3.4,4.9,60,0.00,,,0.00,WUHU216HW,2013-04-07 17:27:00,
2013-04-07 13:28:00,57.1,43.4,30.19,SSW,203,4.7,7.6,60,0.00,,,0.00,WUHU216HW,2013-04-07 17:28:00,
2013-04-07 13:30:00,57.1,43.4,30.19,SSE,158,2.9,7.6,60,0.00,,,0.00,WUHU216HW,2013-04-07 17:30:00,
2013-04-07 13:32:00,56.9,43.2,30.19,SW,225,5.1,7.6,60,0.00,,,0.00,WUHU216HW,2013-04-07 17:32:00,
2013-04-07 13:33:00,56.9,43.2,30.19,SW,225,5.1,7.6,60,0.00,,,0.00,WUHU216HW,2013-04-07 17:33:00,
2013-04-07 13:35:00,56.9,43.2,30.20,South,180,4.3,7.6,60,0.00,,,0.00,WUHU216HW,2013-04-07 17:35:00,
2013-04-07 13:38:00,56.9,43.2,30.20,South,180,3.4,7.6,60,0.00,,,0.00,WUHU216HW,2013-04-07 17:38:00,
2013-04-07 13:39:00,56.9,43.6,30.20,SSE,158,7.4,7.4,61,0.00,,,0.00,WUHU216HW,2013-04-07 17:39:00,
2013-04-07 13:40:00,56.9,43.2,30.20,SW,225,3.4,7.4,60,0.00,,,0.00,WUHU216HW,2013-04-07 17:40:00,
2013-04-07 13:43:00,56.9,43.6,30.20,SSW,203,3.6,7.4,61,0.00,,,0.00,WUHU216HW,2013-04-07 17:43:00,
2013-04-07 13:45:00,57.1,43.4,30.19,SSE,158,6.7,7.4,60,0.00,,,0.00,WUHU216HW,2013-04-07 17:45:00,
2013-04-07 13:48:00,57.1,43.4,30.19,ESE,113,4.0,7.4,60,0.00,,,0.00,WUHU216HW,2013-04-07 17:48:00,
2013-04-07 13:50:00,57.2,43.6,30.19,South,180,5.6,6.7,60,0.00,,,0.00,WUHU216HW,2013-04-07 17:50:00,
2013-04-07 13:51:00,57.1,43.4,30.19,SSW,203,3.8,6.7,60,0.00,,,0.00,WUHU216HW,2013-04-07 17:51:00,
2013-04-07 13:54:00,57.2,43.9,30.19,SSE,158,3.6,6.7,61,0.00,,,0.00,WUHU216HW,2013-04-07 17:54:00,
2013-04-07 13:55:00,57.2,43.6,30.19,SSE,158,3.6,6.5,60,0.00,,,0.00,WUHU216HW,2013-04-07 17:55:00,
2013-04-07 13:56:00,57.2,43.6,30.19,South,180,3.8,6.5,60,0.00,,,0.00,WUHU216HW,2013-04-07 17:56:00,
2013-04-07 13:59:00,57.1,43.4,30.19,SE,135,3.4,6.5,60,0.00,,,0.00,WUHU216HW,2013-04-07 17:59:00,
2013-04-07 14:00:00,57.1,43.4,30.19,SE,135,4.0,6.3,60,0.00,,,0.00,WUHU216HW,2013-04-07 18:00:00,
2013-04-07 14:02:00,57.1,43.4,30.19,SW,225,2.7,6.3,60,0.00,,,0.00,WUHU216HW,2013-04-07 18:02:00,
2013-04-07 14:04:00,56.9,43.6,30.19,SSE,158,5.8,6.3,61,0.00,,,0.00,WUHU216HW,2013-04-07 18:04:00,
2013-04-07 14:06:00,56.7,43.4,30.19,SW,225,4.7,6.3,61,0.00,,,0.00,WUHU216HW,2013-04-07 18:06:00,
2013-04-07 14:07:00,56.9,43.6,30.19,SE,135,5.8,6.3,61,0.00,,,0.00,WUHU216HW,2013-04-07 18:07:00,
2013-04-07 14:09:00,56.7,43.4,30.18,SW,225,4.7,7.4,61,0.00,,,0.00,WUHU216HW,2013-04-07 18:09:00,
2013-04-07 14:11:00,56.7,43.4,30.18,SSW,203,3.4,7.4,61,0.00,,,0.00,WUHU216HW,2013-04-07 18:11:00,
2013-04-07 14:12:00,56.7,43.4,30.18,SSW,203,6.9,7.4,61,0.00,,,0.00,WUHU216HW,2013-04-07 18:12:00,
2013-04-07 14:15:00,56.5,43.2,30.18,WSW,248,4.3,7.4,61,0.00,,,0.00,WUHU216HW,2013-04-07 18:15:00,
2013-04-07 14:17:00,56.5,43.7,30.18,SSW,203,2.7,7.4,62,0.00,,,0.00,WUHU216HW,2013-04-07 18:17:00,
2013-04-07 14:18:00,56.5,43.7,30.18,SSE,158,3.1,7.4,62,0.00,,,0.00,WUHU216HW,2013-04-07 18:18:00,
2013-04-07 14:20:00,56.5,43.7,30.18,SSW,203,4.9,6.9,62,0.00,,,0.00,WUHU216HW,2013-04-07 18:20:00,
2013-04-07 14:22:00,56.3,43.0,30.18,SSW,203,5.4,8.3,61,0.00,,,0.00,WUHU216HW,2013-04-07 18:22:00,
2013-04-07 14:23:00,56.3,43.5,30.18,SSE,158,3.1,8.3,62,0.00,,,0.00,WUHU216HW,2013-04-07 18:23:00,
2013-04-07 14:25:00,56.5,43.7,30.18,ESE,113,3.4,8.3,62,0.00,,,0.00,WUHU216HW,2013-04-07 18:25:00,
2013-04-07 14:27:00,56.5,43.7,30.18,WSW,248,4.0,8.3,62,0.00,,,0.00,WUHU216HW,2013-04-07 18:27:00,
2013-04-07 14:28:00,56.7,43.8,30.17,SSE,158,2.5,8.3,62,0.00,,,0.00,WUHU216HW,2013-04-07 18:28:00,
2013-04-07 14:31:00,56.7,43.8,30.17,West,270,3.1,8.3,62,0.00,,,0.00,WUHU216HW,2013-04-07 18:31:00,
2013-04-07 14:33:00,56.7,43.8,30.17,South,180,4.0,6.3,62,0.00,,,0.00,WUHU216HW,2013-04-07 18:33:00,
2013-04-07 14:36:00,56.9,44.0,30.17,NW,315,2.9,6.3,62,0.00,,,0.00,WUHU216HW,2013-04-07 18:36:00,
2013-04-07 14:38:00,56.9,44.0,30.17,SW,225,2.9,6.3,62,0.00,,,0.00,WUHU216HW,2013-04-07 18:38:00,
2013-04-07 14:41:00,56.9,44.0,30.17,SSW,203,2.7,5.4,62,0.00,,,0.00,WUHU216HW,2013-04-07 18:41:00,
2013-04-07 14:43:00,56.9,43.6,30.17,NE,45,5.1,5.4,61,0.00,,,0.00,WUHU216HW,2013-04-07 18:43:00,
2013-04-07 14:46:00,57.1,43.7,30.17,SW,225,2.5,5.4,61,0.00,,,0.00,WUHU216HW,2013-04-07 18:46:00,
2013-04-07 14:48:00,56.9,43.6,30.16,South,180,2.9,5.4,61,0.00,,,0.00,WUHU216HW,2013-04-07 18:48:00,
2013-04-07 14:50:00,56.9,44.0,30.16,SSE,158,4.0,5.4,62,0.00,,,0.00,WUHU216HW,2013-04-07 18:50:00,
2013-04-07 14:52:00,56.9,43.6,30.16,SSW,203,5.6,5.6,61,0.00,,,0.00,WUHU216HW,2013-04-07 18:52:00,
2013-04-07 14:53:00,56.7,43.4,30.16,NNE,23,1.8,5.6,61,0.00,,,0.00,WUHU216HW,2013-04-07 18:53:00,
2013-04-07 14:55:00,56.7,43.8,30.16,SSW,203,3.1,5.6,62,0.00,,,0.00,WUHU216HW,2013-04-07 18:55:00,
2013-04-07 14:58:00,56.9,44.0,30.16,SW,225,1.8,5.6,62,0.00,,,0.00,WUHU216HW,2013-04-07 18:58:00,
2013-04-07 14:59:00,56.9,44.0,30.16,SSE,158,3.6,5.6,62,0.00,,,0.00,WUHU216HW,2013-04-07 18:59:00,
2013-04-07 15:00:00,56.9,44.0,30.16,SE,135,3.6,5.6,62,0.00,,,0.00,WUHU216HW,2013-04-07 19:00:00,
2013-04-07 15:01:00,56.9,44.0,30.16,South,180,2.9,5.6,62,0.00,,,0.00,WUHU216HW,2013-04-07 19:01:00,
2013-04-07 15:03:00,56.9,43.6,30.16,SW,225,4.7,5.1,61,0.00,,,0.00,WUHU216HW,2013-04-07 19:03:00,
2013-04-07 15:05:00,56.7,43.4,30.15,SSW,203,3.1,7.4,61,0.00,,,0.00,WUHU216HW,2013-04-07 19:05:00,
2013-04-07 15:06:00,56.3,43.5,30.15,SW,225,4.9,7.4,62,0.00,,,0.00,WUHU216HW,2013-04-07 19:06:00,
2013-04-07 15:08:00,56.2,43.3,30.15,SW,225,2.5,7.4,62,0.00,,,0.00,WUHU216HW,2013-04-07 19:08:00,
2013-04-07 15:10:00,55.8,43.4,30.15,SSW,203,2.7,7.4,63,0.00,,,0.00,WUHU216HW,2013-04-07 19:10:00,
2013-04-07 15:11:00,55.6,43.2,30.15,South,180,4.0,7.4,63,0.00,,,0.00,WUHU216HW,2013-04-07 19:11:00,
2013-04-07 15:13:00,55.4,43.4,30.15,ESE,113,4.7,7.4,64,0.00,,,0.00,WUHU216HW,2013-04-07 19:13:00,
2013-04-07 15:15:00,55.4,43.4,30.15,WSW,248,2.5,5.4,64,0.00,,,0.00,WUHU216HW,2013-04-07 19:15:00,
2013-04-07 15:16:00,55.6,43.6,30.15,SW,225,2.5,5.4,64,0.00,,,0.00,WUHU216HW,2013-04-07 19:16:00,
2013-04-07 15:18:00,55.4,43.4,30.15,SSE,158,2.5,5.1,64,0.00,,,0.00,WUHU216HW,2013-04-07 19:18:00,
2013-04-07 15:20:00,55.4,43.4,30.15,SSE,158,2.5,4.7,64,0.00,,,0.00,WUHU216HW,2013-04-07 19:20:00,
2013-04-07 15:22:00,55.6,43.6,30.15,SE,135,4.9,4.9,64,0.00,,,0.00,WUHU216HW,2013-04-07 19:22:00,
2013-04-07 15:25:00,55.6,43.6,30.15,SW,225,5.4,5.8,64,0.00,,,0.00,WUHU216HW,2013-04-07 19:25:00,
2013-04-07 15:26:00,55.6,43.6,30.15,SW,225,5.4,5.8,64,0.00,,,0.00,WUHU216HW,2013-04-07 19:26:00,
2013-04-07 15:27:00,55.4,43.4,30.15,South,180,2.5,5.8,64,0.00,,,0.00,WUHU216HW,2013-04-07 19:27:00,
2013-04-07 15:30:00,55.4,43.4,30.14,SSW,203,4.7,5.8,64,0.00,,,0.00,WUHU216HW,2013-04-07 19:30:00,
2013-04-07 15:31:00,55.4,43.4,30.14,SSE,158,2.7,5.8,64,0.00,,,0.00,WUHU216HW,2013-04-07 19:31:00,
2013-04-07 15:32:00,55.4,43.4,30.14,SSW,203,2.5,5.8,64,0.00,,,0.00,WUHU216HW,2013-04-07 19:32:00,
2013-04-07 15:33:00,55.4,43.8,30.14,WSW,248,2.2,5.8,65,0.00,,,0.00,WUHU216HW,2013-04-07 19:33:00,
2013-04-07 15:35:00,55.4,43.8,30.14,WSW,248,6.0,6.0,65,0.00,,,0.00,WUHU216HW,2013-04-07 19:35:00,
2013-04-07 15:36:00,55.4,43.8,30.14,SSE,158,3.6,6.0,65,0.00,,,0.00,WUHU216HW,2013-04-07 19:36:00,
2013-04-07 15:37:00,55.4,43.8,30.14,SSE,158,3.4,6.0,65,0.00,,,0.00,WUHU216HW,2013-04-07 19:37:00,
2013-04-07 15:38:00,55.3,43.7,30.14,South,180,2.0,6.0,65,0.00,,,0.00,WUHU216HW,2013-04-07 19:38:00,
2013-04-07 15:42:00,55.3,43.7,30.14,SW,225,2.7,6.0,65,0.00,,,0.00,WUHU216HW,2013-04-07 19:42:00,
2013-04-07 15:43:00,55.1,43.5,30.14,South,180,2.0,6.0,65,0.00,,,0.00,WUHU216HW,2013-04-07 19:43:00,
2013-04-07 15:47:00,54.9,43.8,30.14,WSW,248,2.9,5.4,66,0.00,,,0.00,WUHU216HW,2013-04-07 19:47:00,
2013-04-07 15:48:00,54.9,43.3,30.14,SSW,203,4.5,5.4,65,0.00,,,0.00,WUHU216HW,2013-04-07 19:48:00,
2013-04-07 15:52:00,54.9,43.8,30.13,ENE,68,3.1,5.4,66,0.00,,,0.00,WUHU216HW,2013-04-07 19:52:00,
2013-04-07 15:53:00,55.1,43.9,30.13,SSE,158,3.1,5.4,66,0.00,,,0.00,WUHU216HW,2013-04-07 19:53:00,
2013-04-07 15:55:00,55.1,43.9,30.13,SSW,203,3.4,5.4,66,0.00,,,0.00,WUHU216HW,2013-04-07 19:55:00,
2013-04-07 15:57:00,54.9,43.8,30.13,SW,225,4.9,4.9,66,0.00,,,0.00,WUHU216HW,2013-04-07 19:57:00,
2013-04-07 15:58:00,54.9,43.8,30.13,SW,225,2.9,4.9,66,0.00,,,0.00,WUHU216HW,2013-04-07 19:58:00,
2013-04-07 16:00:00,54.9,43.8,30.13,SSW,203,3.4,4.9,66,0.00,,,0.00,WUHU216HW,2013-04-07 20:00:00,
2013-04-07 16:02:00,54.7,43.9,30.13,SSW,203,2.7,4.9,67,0.00,,,0.00,WUHU216HW,2013-04-07 20:02:00,
2013-04-07 16:03:00,54.7,43.6,30.13,SSE,158,4.0,4.9,66,0.00,,,0.00,WUHU216HW,2013-04-07 20:03:00,
2013-04-07 16:06:00,54.5,43.8,30.13,SSW,203,2.5,7.2,67,0.00,,,0.00,WUHU216HW,2013-04-07 20:06:00,
2013-04-07 16:09:00,54.5,43.8,30.13,WSW,248,6.9,7.2,67,0.00,,,0.00,WUHU216HW,2013-04-07 20:09:00,
2013-04-07 16:10:00,54.4,44.0,30.13,South,180,1.3,7.2,68,0.00,,,0.00,WUHU216HW,2013-04-07 20:10:00,
2013-04-07 16:11:00,54.4,43.7,30.13,SW,225,4.0,7.2,67,0.00,,,0.00,WUHU216HW,2013-04-07 20:11:00,
2013-04-07 16:14:00,54.5,44.2,30.13,WSW,248,3.4,7.2,68,0.00,,,0.00,WUHU216HW,2013-04-07 20:14:00,
2013-04-07 16:15:00,54.7,44.4,30.13,SE,135,3.4,7.2,68,0.00,,,0.00,WUHU216HW,2013-04-07 20:15:00,
2013-04-07 16:17:00,54.7,43.9,30.12,SSW,203,2.5,6.9,67,0.00,,,0.00,WUHU216HW,2013-04-07 20:17:00,
2013-04-07 16:20:00,54.9,44.1,30.13,SSW,203,2.7,5.6,67,0.00,,,0.00,WUHU216HW,2013-04-07 20:20:00,
2013-04-07 16:22:00,55.1,44.3,30.12,NW,315,3.1,5.6,67,0.00,,,0.00,WUHU216HW,2013-04-07 20:22:00,
2013-04-07 16:25:00,55.1,44.3,30.12,SE,135,3.6,6.3,67,0.00,,,0.00,WUHU216HW,2013-04-07 20:25:00,
2013-04-07 16:28:00,55.3,44.1,30.12,South,180,4.0,6.3,66,0.00,,,0.00,WUHU216HW,2013-04-07 20:28:00,
2013-04-07 16:30:00,55.3,44.1,30.12,WSW,248,4.0,6.3,66,0.00,,,0.00,WUHU216HW,2013-04-07 20:30:00,
2013-04-07 16:33:00,55.1,43.9,30.12,SSW,203,2.0,6.3,66,0.00,,,0.00,WUHU216HW,2013-04-07 20:33:00,
2013-04-07 16:35:00,54.9,44.1,30.12,SSW,203,3.1,4.9,67,0.00,,,0.00,WUHU216HW,2013-04-07 20:35:00,
2013-04-07 16:36:00,54.9,44.1,30.12,SSW,203,3.1,4.9,67,0.00,,,0.00,WUHU216HW,2013-04-07 20:36:00,
2013-04-07 16:38:00,54.5,43.8,30.12,WSW,248,2.7,5.1,67,0.00,,,0.00,WUHU216HW,2013-04-07 20:38:00,
2013-04-07 16:40:00,54.4,43.7,30.12,WSW,248,3.6,5.4,67,0.00,,,0.00,WUHU216HW,2013-04-07 20:40:00,
2013-04-07 16:41:00,54.4,44.0,30.12,South,180,3.1,5.4,68,0.00,,,0.00,WUHU216HW,2013-04-07 20:41:00,
2013-04-07 16:43:00,54.0,43.7,30.12,South,180,4.7,5.4,68,0.00,,,0.00,WUHU216HW,2013-04-07 20:43:00,
2013-04-07 16:45:00,53.8,43.9,30.11,SW,225,3.4,5.4,69,0.00,,,0.00,WUHU216HW,2013-04-07 20:45:00,
2013-04-07 16:47:00,53.6,43.8,30.11,West,270,2.0,5.4,69,0.00,,,0.00,WUHU216HW,2013-04-07 20:47:00,
2013-04-07 16:48:00,53.6,43.8,30.11,South,180,2.5,5.4,69,0.00,,,0.00,WUHU216HW,2013-04-07 20:48:00,
2013-04-07 16:51:00,53.6,44.1,30.11,SW,225,2.7,6.3,70,0.00,,,0.00,WUHU216HW,2013-04-07 20:51:00,
2013-04-07 16:52:00,53.6,43.8,30.11,SW,225,2.0,6.3,69,0.00,,,0.00,WUHU216HW,2013-04-07 20:52:00,
2013-04-07 16:55:00,53.6,44.1,30.11,South,180,3.4,6.3,70,0.00,,,0.00,WUHU216HW,2013-04-07 20:55:00,
2013-04-07 16:56:00,53.6,43.8,30.11,SSW,203,3.6,6.3,69,0.00,,,0.00,WUHU216HW,2013-04-07 20:56:00,
2013-04-07 16:57:00,53.6,43.8,30.11,WSW,248,5.4,6.3,69,0.00,,,0.00,WUHU216HW,2013-04-07 20:57:00,
2013-04-07 17:00:00,53.5,43.9,30.10,SSE,158,4.7,6.3,70,0.00,,,0.00,WUHU216HW,2013-04-07 21:00:00,
2013-04-07 17:01:00,53.3,43.7,30.10,WSW,248,5.4,6.0,70,0.00,,,0.00,WUHU216HW,2013-04-07 21:01:00,
2013-04-07 17:02:00,53.3,43.7,30.10,SW,225,3.1,6.0,70,0.00,,,0.00,WUHU216HW,2013-04-07 21:02:00,
2013-04-07 17:05:00,53.1,43.7,30.10,SW,225,4.3,7.6,70,0.00,,,0.00,WUHU216HW,2013-04-07 21:05:00,
2013-04-07 17:07:00,53.1,43.7,30.09,SW,225,4.0,7.6,70,0.00,,,0.00,WUHU216HW,2013-04-07 21:07:00,
2013-04-07 17:08:00,52.9,43.8,30.09,SE,135,4.0,7.6,71,0.00,,,0.00,WUHU216HW,2013-04-07 21:08:00,
2013-04-07 17:10:00,52.7,43.7,30.09,South,180,4.9,7.6,71,0.00,,,0.00,WUHU216HW,2013-04-07 21:10:00,
2013-04-07 17:12:00,52.7,44.0,30.09,WSW,248,5.4,7.6,72,0.00,,,0.00,WUHU216HW,2013-04-07 21:12:00,
2013-04-07 17:13:00,52.6,43.8,30.09,SW,225,6.3,7.6,72,0.00,,,0.00,WUHU216HW,2013-04-07 21:13:00,
2013-04-07 17:15:00,52.6,43.8,30.09,SW,225,4.5,6.3,72,0.00,,,0.00,WUHU216HW,2013-04-07 21:15:00,
2013-04-07 17:17:00,52.4,43.7,30.09,SSW,203,2.7,6.3,72,0.00,,,0.00,WUHU216HW,2013-04-07 21:17:00,
2013-04-07 17:18:00,52.4,43.3,30.09,SSW,203,3.1,6.3,71,0.00,,,0.00,WUHU216HW,2013-04-07 21:18:00,
2013-04-07 17:19:00,52.2,43.1,30.09,South,180,4.9,6.3,71,0.00,,,0.00,WUHU216HW,2013-04-07 21:19:00,
2013-04-07 17:20:00,52.2,43.1,30.09,SSW,203,4.5,6.3,71,0.00,,,0.00,WUHU216HW,2013-04-07 21:20:00,
2013-04-07 17:22:00,52.2,43.5,30.09,WSW,248,6.3,6.3,72,0.00,,,0.00,WUHU216HW,2013-04-07 21:22:00,
2013-04-07 17:23:00,52.2,43.5,30.09,SSE,158,4.0,6.3,72,0.00,,,0.00,WUHU216HW,2013-04-07 21:23:00,
2013-04-07 17:24:00,52.2,43.5,30.09,SSE,158,4.0,6.3,72,0.00,,,0.00,WUHU216HW,2013-04-07 21:24:00,
2013-04-07 17:26:00,52.0,43.3,30.09,NW,315,6.0,6.3,72,0.00,,,0.00,WUHU216HW,2013-04-07 21:26:00,
2013-04-07 17:27:00,52.0,43.3,30.09,SSE,158,3.6,6.3,72,0.00,,,0.00,WUHU216HW,2013-04-07 21:27:00,
2013-04-07 17:28:00,52.0,43.3,30.08,SSE,158,2.9,6.3,72,0.00,,,0.00,WUHU216HW,2013-04-07 21:28:00,
2013-04-07 17:30:00,51.8,43.2,30.08,South,180,2.7,6.3,72,0.00,,,0.00,WUHU216HW,2013-04-07 21:30:00,
2013-04-07 17:31:00,51.8,43.2,30.08,ESE,113,3.4,6.3,72,0.00,,,0.00,WUHU216HW,2013-04-07 21:31:00,
2013-04-07 17:33:00,51.8,43.2,30.08,SSW,203,4.3,6.0,72,0.00,,,0.00,WUHU216HW,2013-04-07 21:33:00,
2013-04-07 17:37:00,52.0,43.3,30.07,South,180,5.1,6.0,72,0.00,,,0.00,WUHU216HW,2013-04-07 21:37:00,
2013-04-07 17:38:00,51.8,43.2,30.07,SSE,158,4.0,6.0,72,0.00,,,0.00,WUHU216HW,2013-04-07 21:38:00,
2013-04-07 17:40:00,51.8,43.5,30.07,WSW,248,4.0,7.2,73,0.00,,,0.00,WUHU216HW,2013-04-07 21:40:00,
2013-04-07 17:42:00,51.8,43.5,30.06,SSW,203,3.1,7.2,73,0.00,,,0.00,WUHU216HW,2013-04-07 21:42:00,
2013-04-07 17:43:00,51.8,43.2,30.06,WNW,293,2.0,7.2,72,0.00,,,0.00,WUHU216HW,2013-04-07 21:43:00,
2013-04-07 17:45:00,51.8,43.5,30.07,South,180,3.8,7.2,73,0.00,,,0.00,WUHU216HW,2013-04-07 21:45:00,
2013-04-07 17:48:00,52.0,43.7,30.07,WSW,248,6.3,7.4,73,0.00,,,0.00,WUHU216HW,2013-04-07 21:48:00,
2013-04-07 17:49:00,51.8,43.5,30.07,NW,315,5.1,7.4,73,0.00,,,0.00,WUHU216HW,2013-04-07 21:49:00,
2013-04-07 17:50:00,51.8,43.5,30.07,SSW,203,4.3,7.4,73,0.00,,,0.00,WUHU216HW,2013-04-07 21:50:00,
2013-04-07 17:53:00,51.7,43.3,30.07,South,180,7.2,7.4,73,0.00,,,0.00,WUHU216HW,2013-04-07 21:53:00,
2013-04-07 17:55:00,51.5,43.1,30.07,SW,225,3.4,7.4,73,0.00,,,0.00,WUHU216HW,2013-04-07 21:55:00,
2013-04-07 17:58:00,51.3,43.3,30.07,SSW,203,2.9,7.2,74,0.00,,,0.00,WUHU216HW,2013-04-07 21:58:00,
2013-04-07 18:00:00,51.1,43.1,30.07,SSE,158,3.1,7.2,74,0.00,,,0.00,WUHU216HW,2013-04-07 22:00:00,
2013-04-07 18:01:00,51.1,43.5,30.07,West,270,4.5,7.2,75,0.00,,,0.00,WUHU216HW,2013-04-07 22:01:00,
2013-04-07 18:03:00,50.8,43.1,30.08,SSE,158,4.0,7.2,75,0.00,,,0.00,WUHU216HW,2013-04-07 22:03:00,
2013-04-07 18:05:00,50.8,43.1,30.08,SSW,203,3.4,6.9,75,0.00,,,0.00,WUHU216HW,2013-04-07 22:05:00,
2013-04-07 18:06:00,50.6,42.9,30.08,SW,225,5.1,6.3,75,0.00,,,0.00,WUHU216HW,2013-04-07 22:06:00,
2013-04-07 18:08:00,50.6,43.3,30.08,WSW,248,6.9,6.9,76,0.00,,,0.00,WUHU216HW,2013-04-07 22:08:00,
2013-04-07 18:10:00,50.6,43.3,30.09,SSW,203,5.8,6.9,76,0.00,,,0.00,WUHU216HW,2013-04-07 22:10:00,
2013-04-07 18:11:00,50.6,43.3,30.09,NW,315,0.9,6.9,76,0.00,,,0.00,WUHU216HW,2013-04-07 22:11:00,
2013-04-07 18:13:00,50.8,43.8,30.09,SSE,158,3.1,6.9,77,0.00,,,0.00,WUHU216HW,2013-04-07 22:13:00,
2013-04-07 18:15:00,50.8,43.5,30.09,WSW,248,2.9,6.9,76,0.00,,,0.00,WUHU216HW,2013-04-07 22:15:00,
2013-04-07 18:17:00,50.6,43.7,30.09,WSW,248,1.1,6.9,77,0.00,,,0.00,WUHU216HW,2013-04-07 22:17:00,
2013-04-07 18:20:00,50.8,43.8,30.09,SE,135,2.9,5.8,77,0.00,,,0.00,WUHU216HW,2013-04-07 22:20:00,
2013-04-07 18:22:00,50.8,43.8,30.09,WSW,248,5.4,6.7,77,0.00,,,0.00,WUHU216HW,2013-04-07 22:22:00,
2013-04-07 18:23:00,50.6,43.7,30.09,WSW,248,3.8,6.7,77,0.00,,,0.00,WUHU216HW,2013-04-07 22:23:00,
2013-04-07 18:25:00,50.8,44.1,30.09,SW,225,1.8,6.7,78,0.00,,,0.00,WUHU216HW,2013-04-07 22:25:00,
2013-04-07 18:26:00,50.6,43.9,30.10,SSE,158,3.1,6.7,78,0.00,,,0.00,WUHU216HW,2013-04-07 22:26:00,
2013-04-07 18:27:00,50.8,43.8,30.09,WSW,248,3.8,6.7,77,0.00,,,0.00,WUHU216HW,2013-04-07 22:27:00,
2013-04-07 18:28:00,50.8,43.8,30.09,SW,225,3.4,6.7,77,0.00,,,0.00,WUHU216HW,2013-04-07 22:28:00,
2013-04-07 18:30:00,50.8,43.8,30.10,SW,225,1.6,6.7,77,0.00,,,0.00,WUHU216HW,2013-04-07 22:30:00,
2013-04-07 18:31:00,50.8,43.8,30.10,NW,315,3.6,5.6,77,0.00,,,0.00,WUHU216HW,2013-04-07 22:31:00,
2013-04-07 18:32:00,50.8,43.8,30.10,SW,225,8.5,8.5,77,0.00,,,0.00,WUHU216HW,2013-04-07 22:32:00,
2013-04-07 18:33:00,50.8,43.8,30.10,West,270,3.8,8.5,77,0.00,,,0.00,WUHU216HW,2013-04-07 22:33:00,
2013-04-07 18:35:00,50.8,43.8,30.10,South,180,3.4,8.5,77,0.00,,,0.00,WUHU216HW,2013-04-07 22:35:00,
2013-04-07 18:37:00,50.8,44.1,30.10,SSW,203,4.0,8.5,78,0.00,,,0.00,WUHU216HW,2013-04-07 22:37:00,
2013-04-07 18:38:00,50.8,44.1,30.10,SSW,203,4.0,8.5,78,0.00,,,0.00,WUHU216HW,2013-04-07 22:38:00,
2013-04-07 18:40:00,50.8,44.1,30.10,NNW,338,2.9,8.5,78,0.00,,,0.00,WUHU216HW,2013-04-07 22:40:00,
2013-04-07 18:43:00,50.6,43.9,30.10,South,180,4.0,8.5,78,0.00,,,0.00,WUHU216HW,2013-04-07 22:43:00,
2013-04-07 18:45:00,50.6,43.9,30.09,WSW,248,6.3,9.8,78,0.00,,,0.00,WUHU216HW,2013-04-07 22:45:00,
2013-04-07 18:48:00,50.6,43.9,30.09,East,90,4.5,9.8,78,0.00,,,0.00,WUHU216HW,2013-04-07 22:48:00,
2013-04-07 18:52:00,50.4,43.7,30.09,SSW,203,7.4,9.8,78,0.00,,,0.00,WUHU216HW,2013-04-07 22:52:00,
2013-04-07 18:53:00,50.4,43.7,30.09,SSW,203,2.5,9.8,78,0.00,,,0.00,WUHU216HW,2013-04-07 22:53:00,
2013-04-07 18:55:00,50.4,43.7,30.10,SSW,203,1.3,7.4,78,0.00,,,0.00,WUHU216HW,2013-04-07 22:55:00,
2013-04-07 18:57:00,50.2,43.9,30.10,WSW,248,3.4,7.4,79,0.00,,,0.00,WUHU216HW,2013-04-07 22:57:00,
2013-04-07 18:58:00,50.2,43.9,30.10,SW,225,4.9,7.4,79,0.00,,,0.00,WUHU216HW,2013-04-07 22:58:00,
2013-04-07 18:59:00,50.0,43.4,30.10,SW,225,3.4,7.4,78,0.00,,,0.00,WUHU216HW,2013-04-07 22:59:00,
2013-04-07 19:01:00,50.0,43.7,30.10,SW,225,2.9,7.4,79,0.00,,,0.00,WUHU216HW,2013-04-07 23:01:00,
2013-04-07 19:02:00,49.9,43.2,30.10,SW,225,2.5,7.2,78,0.00,,,0.00,WUHU216HW,2013-04-07 23:02:00,
2013-04-07 19:03:00,49.9,43.2,30.09,South,180,3.4,7.2,78,0.00,,,0.00,WUHU216HW,2013-04-07 23:03:00,
2013-04-07 19:05:00,49.9,43.6,30.10,SSW,203,2.9,6.5,79,0.00,,,0.00,WUHU216HW,2013-04-07 23:05:00,
2013-04-07 19:07:00,49.7,43.4,30.09,SE,135,2.9,5.4,79,0.00,,,0.00,WUHU216HW,2013-04-07 23:07:00,
2013-04-07 19:08:00,49.5,43.2,30.10,SW,225,1.1,5.4,79,0.00,,,0.00,WUHU216HW,2013-04-07 23:08:00,
2013-04-07 19:09:00,49.3,43.4,30.09,SW,225,2.5,6.5,80,0.00,,,0.00,WUHU216HW,2013-04-07 23:09:00,
2013-04-07 19:11:00,49.3,43.0,30.09,SW,225,5.4,6.5,79,0.00,,,0.00,WUHU216HW,2013-04-07 23:11:00,
2013-04-07 19:13:00,49.1,42.8,30.09,SW,225,1.6,6.5,79,0.00,,,0.00,WUHU216HW,2013-04-07 23:13:00,
2013-04-07 19:14:00,49.1,43.2,30.09,SSW,203,4.3,6.5,80,0.00,,,0.00,WUHU216HW,2013-04-07 23:14:00,
2013-04-07 19:16:00,49.0,43.0,30.09,West,270,4.9,6.5,80,0.00,,,0.00,WUHU216HW,2013-04-07 23:16:00,
2013-04-07 19:18:00,48.8,43.2,30.09,WSW,248,4.3,6.5,81,0.00,,,0.00,WUHU216HW,2013-04-07 23:18:00,
2013-04-07 19:20:00,48.6,43.0,30.09,SW,225,4.5,6.0,81,0.00,,,0.00,WUHU216HW,2013-04-07 23:20:00,
2013-04-07 19:21:00,48.6,42.7,30.09,WSW,248,3.8,5.4,80,0.00,,,0.00,WUHU216HW,2013-04-07 23:21:00,
2013-04-07 19:23:00,48.6,43.0,30.09,SSW,203,2.5,5.4,81,0.00,,,0.00,WUHU216HW,2013-04-07 23:23:00,
2013-04-07 19:25:00,48.4,43.1,30.09,SSW,203,3.1,5.4,82,0.00,,,0.00,WUHU216HW,2013-04-07 23:25:00,
2013-04-07 19:26:00,48.2,42.7,30.09,SSE,158,3.4,5.4,81,0.00,,,0.00,WUHU216HW,2013-04-07 23:26:00,
2013-04-07 19:28:00,48.2,42.7,30.08,SSW,203,3.4,5.1,81,0.00,,,0.00,WUHU216HW,2013-04-07 23:28:00,
2013-04-07 19:30:00,48.1,42.5,30.08,South,180,4.7,5.1,81,0.00,,,0.00,WUHU216HW,2013-04-07 23:30:00,
2013-04-07 19:32:00,47.9,42.3,30.08,SSW,203,1.8,5.1,81,0.00,,,0.00,WUHU216HW,2013-04-07 23:32:00,
2013-04-07 19:33:00,47.9,42.3,30.08,SE,135,3.4,5.1,81,0.00,,,0.00,WUHU216HW,2013-04-07 23:33:00,
2013-04-07 19:34:00,47.9,42.3,30.08,SSW,203,3.4,5.1,81,0.00,,,0.00,WUHU216HW,2013-04-07 23:34:00,
2013-04-07 19:35:00,47.9,42.3,30.08,WSW,248,0.4,6.0,81,0.00,,,0.00,WUHU216HW,2013-04-07 23:35:00,
2013-04-07 19:37:00,47.7,42.1,30.08,West,270,1.3,6.0,81,0.00,,,0.00,WUHU216HW,2013-04-07 23:37:00,
2013-04-07 19:38:00,47.5,42.3,30.08,SSE,158,6.0,6.0,82,0.00,,,0.00,WUHU216HW,2013-04-07 23:38:00,
2013-04-07 19:39:00,47.5,41.9,30.08,SE,135,1.8,6.0,81,0.00,,,0.00,WUHU216HW,2013-04-07 23:39:00,
2013-04-07 19:40:00,47.5,41.9,30.08,SSE,158,1.8,6.0,81,0.00,,,0.00,WUHU216HW,2013-04-07 23:40:00,
2013-04-07 19:42:00,47.3,42.1,30.08,SW,225,4.9,6.0,82,0.00,,,0.00,WUHU216HW,2013-04-07 23:42:00,
2013-04-07 19:43:00,47.5,42.3,30.08,SW,225,2.0,6.0,82,0.00,,,0.00,WUHU216HW,2013-04-07 23:43:00,
2013-04-07 19:44:00,47.3,42.5,30.08,SW,225,3.4,6.0,83,0.00,,,0.00,WUHU216HW,2013-04-07 23:44:00,
2013-04-07 19:45:00,47.3,42.5,30.08,SSW,203,1.8,6.0,83,0.00,,,0.00,WUHU216HW,2013-04-07 23:45:00,
2013-04-07 19:47:00,47.2,42.3,30.08,SSE,158,3.1,6.0,83,0.00,,,0.00,WUHU216HW,2013-04-07 23:47:00,
2013-04-07 19:49:00,47.2,42.3,30.08,SSW,203,2.2,6.0,83,0.00,,,0.00,WUHU216HW,2013-04-07 23:49:00,
2013-04-07 19:50:00,47.2,42.3,30.08,SW,225,2.7,6.0,83,0.00,,,0.00,WUHU216HW,2013-04-07 23:50:00,
2013-04-07 19:53:00,47.2,42.6,30.08,WSW,248,3.8,6.0,84,0.00,,,0.00,WUHU216HW,2013-04-07 23:53:00,
2013-04-07 19:54:00,47.2,42.6,30.08,South,180,4.3,6.0,84,0.00,,,0.00,WUHU216HW,2013-04-07 23:54:00,
2013-04-07 19:55:00,47.2,42.3,30.08,SW,225,2.2,6.0,83,0.00,,,0.00,WUHU216HW,2013-04-07 23:55:00,
2013-04-07 19:58:00,47.0,42.4,30.08,NW,315,3.8,5.8,84,0.00,,,0.00,WUHU216HW,2013-04-07 23:58:00,
2013-04-07 20:00:00,47.0,42.4,30.08,WSW,248,4.0,5.8,84,0.00,,,0.00,WUHU216HW,2013-04-08 00:00:00,
2013-04-07 20:03:00,47.0,42.8,30.08,WSW,248,2.7,5.8,85,0.00,,,0.00,WUHU216HW,2013-04-08 00:03:00,
2013-04-07 20:05:00,47.0,42.8,30.08,SW,225,2.5,7.2,85,0.00,,,0.00,WUHU216HW,2013-04-08 00:05:00,
2013-04-07 20:06:00,47.0,42.8,30.08,WSW,248,2.5,7.2,85,0.00,,,0.00,WUHU216HW,2013-04-08 00:06:00,
2013-04-07 20:08:00,47.0,42.8,30.08,WNW,293,4.0,7.2,85,0.00,,,0.00,WUHU216HW,2013-04-08 00:08:00,
2013-04-07 20:10:00,46.8,42.6,30.08,WSW,248,3.6,7.2,85,0.00,,,0.00,WUHU216HW,2013-04-08 00:10:00,
2013-04-07 20:11:00,46.8,42.6,30.08,WNW,293,5.1,7.2,85,0.00,,,0.00,WUHU216HW,2013-04-08 00:11:00,
2013-04-07 20:15:00,46.8,42.6,30.08,SW,225,2.0,6.5,85,0.00,,,0.00,WUHU216HW,2013-04-08 00:15:00,
2013-04-07 20:16:00,46.8,42.6,30.08,WSW,248,2.5,6.5,85,0.00,,,0.00,WUHU216HW,2013-04-08 00:16:00,
2013-04-07 20:20:00,46.8,42.6,30.08,SSE,158,4.5,6.5,85,0.00,,,0.00,WUHU216HW,2013-04-08 00:20:00,
2013-04-07 20:22:00,46.8,42.6,30.08,SW,225,4.3,6.0,85,0.00,,,0.00,WUHU216HW,2013-04-08 00:22:00,
2013-04-07 20:25:00,46.8,42.6,30.09,SSE,158,4.0,5.8,85,0.00,,,0.00,WUHU216HW,2013-04-08 00:25:00,
2013-04-07 20:28:00,46.8,42.6,30.08,WSW,248,6.3,6.3,85,0.00,,,0.00,WUHU216HW,2013-04-08 00:28:00,
2013-04-07 20:30:00,46.6,42.7,30.09,SSW,203,2.5,6.3,86,0.00,,,0.00,WUHU216HW,2013-04-08 00:30:00,
2013-04-07 20:33:00,46.6,42.4,30.09,SW,225,5.6,6.3,85,0.00,,,0.00,WUHU216HW,2013-04-08 00:33:00,
2013-04-07 20:35:00,46.6,42.7,30.09,SSW,203,4.3,6.7,86,0.00,,,0.00,WUHU216HW,2013-04-08 00:35:00,
2013-04-07 20:36:00,46.6,42.4,30.09,WSW,248,1.8,6.7,85,0.00,,,0.00,WUHU216HW,2013-04-08 00:36:00,
2013-04-07 20:38:00,46.6,42.4,30.09,South,180,2.2,6.7,85,0.00,,,0.00,WUHU216HW,2013-04-08 00:38:00,
2013-04-07 20:40:00,46.6,42.7,30.08,SW,225,3.6,6.7,86,0.00,,,0.00,WUHU216HW,2013-04-08 00:40:00,
2013-04-07 20:42:00,46.6,42.7,30.08,West,270,3.6,6.7,86,0.00,,,0.00,WUHU216HW,2013-04-08 00:42:00,
2013-04-07 20:43:00,46.6,42.7,30.08,SW,225,5.1,6.7,86,0.00,,,0.00,WUHU216HW,2013-04-08 00:43:00,
2013-04-07 20:46:00,46.6,42.7,30.08,SSW,203,3.4,5.4,86,0.00,,,0.00,WUHU216HW,2013-04-08 00:46:00,
2013-04-07 20:47:00,46.6,42.7,30.08,West,270,4.9,5.4,86,0.00,,,0.00,WUHU216HW,2013-04-08 00:47:00,
2013-04-07 20:48:00,46.6,42.7,30.08,SSE,158,5.1,5.4,86,0.00,,,0.00,WUHU216HW,2013-04-08 00:48:00,
2013-04-07 20:51:00,46.6,42.7,30.08,SE,135,4.0,5.4,86,0.00,,,0.00,WUHU216HW,2013-04-08 00:51:00,
2013-04-07 20:52:00,46.6,42.7,30.09,SSW,203,2.7,5.4,86,0.00,,,0.00,WUHU216HW,2013-04-08 00:52:00,
2013-04-07 20:53:00,46.6,42.7,30.09,WSW,248,2.2,5.4,86,0.00,,,0.00,WUHU216HW,2013-04-08 00:53:00,
2013-04-07 20:56:00,46.6,42.7,30.08,SW,225,4.9,5.4,86,0.00,,,0.00,WUHU216HW,2013-04-08 00:56:00,
2013-04-07 20:58:00,46.6,42.7,30.09,South,180,3.1,5.4,86,0.00,,,0.00,WUHU216HW,2013-04-08 00:58:00,
2013-04-07 20:59:00,46.6,42.4,30.08,ESE,113,4.3,5.4,85,0.00,,,0.00,WUHU216HW,2013-04-08 00:59:00,
2013-04-07 21:01:00,46.6,42.7,30.08,West,270,4.7,5.4,86,0.00,,,0.00,WUHU216HW,2013-04-08 01:01:00,
2013-04-07 21:03:00,46.6,42.7,30.09,SSE,158,2.5,5.4,86,0.00,,,0.00,WUHU216HW,2013-04-08 01:03:00,
2013-04-07 21:05:00,46.6,42.7,30.09,SSW,203,4.0,5.4,86,0.00,,,0.00,WUHU216HW,2013-04-08 01:05:00,
2013-04-07 21:07:00,46.6,42.4,30.09,SSE,158,3.1,7.6,85,0.00,,,0.00,WUHU216HW,2013-04-08 01:07:00,
2013-04-07 21:10:00,46.6,42.4,30.09,South,180,2.7,7.6,85,0.00,,,0.00,WUHU216HW,2013-04-08 01:10:00,
2013-04-07 21:12:00,46.6,42.4,30.09,WSW,248,3.6,7.6,85,0.00,,,0.00,WUHU216HW,2013-04-08 01:12:00,
2013-04-07 21:15:00,46.6,42.4,30.09,SSW,203,1.8,5.8,85,0.00,,,0.00,WUHU216HW,2013-04-08 01:15:00,
2013-04-07 21:17:00,46.6,42.4,30.09,SW,225,3.6,5.8,85,0.00,,,0.00,WUHU216HW,2013-04-08 01:17:00,
2013-04-07 21:20:00,46.6,42.4,30.09,North,0,1.6,5.4,85,0.00,,,0.00,WUHU216HW,2013-04-08 01:20:00,
2013-04-07 21:21:00,46.6,42.4,30.09,WSW,248,4.7,5.4,85,0.00,,,0.00,WUHU216HW,2013-04-08 01:21:00,
2013-04-07 21:22:00,46.6,42.4,30.09,West,270,4.0,5.4,85,0.00,,,0.00,WUHU216HW,2013-04-08 01:22:00,
2013-04-07 21:25:00,46.6,42.4,30.09,SSW,203,2.0,5.8,85,0.00,,,0.00,WUHU216HW,2013-04-08 01:25:00,
2013-04-07 21:26:00,46.8,42.6,30.09,SW,225,4.0,5.8,85,0.00,,,0.00,WUHU216HW,2013-04-08 01:26:00,
2013-04-07 21:27:00,46.8,42.6,30.09,West,270,3.1,5.8,85,0.00,,,0.00,WUHU216HW,2013-04-08 01:27:00,
2013-04-07 21:31:00,46.8,42.6,30.09,SSW,203,3.8,6.5,85,0.00,,,0.00,WUHU216HW,2013-04-08 01:31:00,
2013-04-07 21:33:00,46.8,42.6,30.09,SSE,158,1.6,6.5,85,0.00,,,0.00,WUHU216HW,2013-04-08 01:33:00,
2013-04-07 21:36:00,46.8,42.6,30.09,SSW,203,2.2,6.5,85,0.00,,,0.00,WUHU216HW,2013-04-08 01:36:00,
2013-04-07 21:38:00,46.8,42.6,30.09,South,180,3.4,6.5,85,0.00,,,0.00,WUHU216HW,2013-04-08 01:38:00,
2013-04-07 21:41:00,46.8,42.6,30.09,SSW,203,2.9,5.6,85,0.00,,,0.00,WUHU216HW,2013-04-08 01:41:00,
2013-04-07 21:42:00,46.8,42.6,30.09,WSW,248,2.7,4.9,85,0.00,,,0.00,WUHU216HW,2013-04-08 01:42:00,
2013-04-07 21:44:00,46.8,42.6,30.09,SE,135,3.4,4.9,85,0.00,,,0.00,WUHU216HW,2013-04-08 01:44:00,
2013-04-07 21:46:00,46.8,42.6,30.09,WSW,248,2.7,4.9,85,0.00,,,0.00,WUHU216HW,2013-04-08 01:46:00,
2013-04-07 21:47:00,46.6,42.4,30.09,SSE,158,4.0,4.9,85,0.00,,,0.00,WUHU216HW,2013-04-08 01:47:00,
2013-04-07 21:48:00,46.8,42.6,30.09,SSE,158,2.5,4.9,85,0.00,,,0.00,WUHU216HW,2013-04-08 01:48:00,
2013-04-07 21:49:00,46.6,42.0,30.09,WSW,248,1.8,4.7,84,0.00,,,0.00,WUHU216HW,2013-04-08 01:49:00,
2013-04-07 21:51:00,46.6,42.0,30.09,SSW,203,1.8,4.7,84,0.00,,,0.00,WUHU216HW,2013-04-08 01:51:00,
2013-04-07 21:52:00,46.6,42.4,30.09,WSW,248,1.3,4.0,85,0.00,,,0.00,WUHU216HW,2013-04-08 01:52:00,
2013-04-07 21:53:00,46.6,42.0,30.09,SW,225,2.0,4.0,84,0.00,,,0.00,WUHU216HW,2013-04-08 01:53:00,
2013-04-07 21:55:00,46.6,42.0,30.09,SSW,203,1.6,4.7,84,0.00,,,0.00,WUHU216HW,2013-04-08 01:55:00,
2013-04-07 21:57:00,46.6,42.4,30.09,SSE,158,1.3,4.7,85,0.00,,,0.00,WUHU216HW,2013-04-08 01:57:00,
2013-04-07 21:58:00,46.6,42.4,30.09,WSW,248,1.8,4.7,85,0.00,,,0.00,WUHU216HW,2013-04-08 01:58:00,
2013-04-07 21:59:00,46.6,42.4,30.09,South,180,1.8,4.7,85,0.00,,,0.00,WUHU216HW,2013-04-08 01:59:00,
2013-04-07 22:00:00,46.6,42.4,30.09,SW,225,2.2,4.7,85,0.00,,,0.00,WUHU216HW,2013-04-08 02:00:00,
2013-04-07 22:02:00,46.6,42.4,30.09,WSW,248,1.3,4.7,85,0.00,,,0.00,WUHU216HW,2013-04-08 02:02:00,
2013-04-07 22:03:00,46.6,42.4,30.09,SE,135,4.7,4.7,85,0.00,,,0.00,WUHU216HW,2013-04-08 02:03:00,
2013-04-07 22:04:00,46.6,42.4,30.09,South,180,3.4,4.7,85,0.00,,,0.00,WUHU216HW,2013-04-08 02:04:00,
2013-04-07 22:05:00,46.6,42.4,30.09,WSW,248,1.8,4.7,85,0.00,,,0.00,WUHU216HW,2013-04-08 02:05:00,
2013-04-07 22:08:00,46.6,42.4,30.09,SW,225,1.1,4.7,85,0.00,,,0.00,WUHU216HW,2013-04-08 02:08:00,
2013-04-07 22:09:00,46.6,42.4,30.09,SSW,203,2.5,4.7,85,0.00,,,0.00,WUHU216HW,2013-04-08 02:09:00,
2013-04-07 22:10:00,46.6,42.4,30.09,South,180,0.7,4.7,85,0.00,,,0.00,WUHU216HW,2013-04-08 02:10:00,
2013-04-07 22:13:00,46.6,42.4,30.09,SSE,158,2.9,4.7,85,0.00,,,0.00,WUHU216HW,2013-04-08 02:13:00,
2013-04-07 22:14:00,46.6,42.4,30.09,SSW,203,1.1,4.5,85,0.00,,,0.00,WUHU216HW,2013-04-08 02:14:00,
2013-04-07 22:15:00,46.4,42.2,30.08,SSW,203,4.0,4.5,85,0.00,,,0.00,WUHU216HW,2013-04-08 02:15:00,
2013-04-07 22:18:00,46.6,42.4,30.08,NNW,338,1.6,4.5,85,0.00,,,0.00,WUHU216HW,2013-04-08 02:18:00,
2013-04-07 22:19:00,46.4,42.2,30.09,SW,225,1.1,4.5,85,0.00,,,0.00,WUHU216HW,2013-04-08 02:19:00,
2013-04-07 22:20:00,46.4,42.2,30.08,SW,225,2.2,4.5,85,0.00,,,0.00,WUHU216HW,2013-04-08 02:20:00,
2013-04-07 22:23:00,46.4,42.2,30.08,SW,225,2.9,4.5,85,0.00,,,0.00,WUHU216HW,2013-04-08 02:23:00,
2013-04-07 22:25:00,46.4,42.2,30.09,WSW,248,1.8,4.0,85,0.00,,,0.00,WUHU216HW,2013-04-08 02:25:00,
2013-04-07 22:26:00,46.4,42.2,30.09,WSW,248,2.9,4.0,85,0.00,,,0.00,WUHU216HW,2013-04-08 02:26:00,
2013-04-07 22:27:00,46.4,42.2,30.09,South,180,2.9,4.9,85,0.00,,,0.00,WUHU216HW,2013-04-08 02:27:00,
2013-04-07 22:28:00,46.4,42.2,30.09,SW,225,2.2,4.9,85,0.00,,,0.00,WUHU216HW,2013-04-08 02:28:00,
2013-04-07 22:31:00,46.4,42.2,30.08,SSW,203,1.8,4.9,85,0.00,,,0.00,WUHU216HW,2013-04-08 02:31:00,
2013-04-07 22:32:00,46.4,42.2,30.08,SSW,203,1.8,4.9,85,0.00,,,0.00,WUHU216HW,2013-04-08 02:32:00,
2013-04-07 22:33:00,46.4,42.2,30.08,South,180,2.5,4.9,85,0.00,,,0.00,WUHU216HW,2013-04-08 02:33:00,
2013-04-07 22:34:00,46.4,42.2,30.08,SW,225,4.7,4.9,85,0.00,,,0.00,WUHU216HW,2013-04-08 02:34:00,
2013-04-07 22:37:00,46.6,42.4,30.08,SSW,203,3.4,5.8,85,0.00,,,0.00,WUHU216HW,2013-04-08 02:37:00,
2013-04-07 22:38:00,46.4,42.2,30.08,SSW,203,2.0,5.8,85,0.00,,,0.00,WUHU216HW,2013-04-08 02:38:00,
2013-04-07 22:40:00,46.4,42.2,30.08,SSW,203,3.6,5.8,85,0.00,,,0.00,WUHU216HW,2013-04-08 02:40:00,
2013-04-07 22:43:00,46.4,42.2,30.07,SSW,203,4.5,5.8,85,0.00,,,0.00,WUHU216HW,2013-04-08 02:43:00,
2013-04-07 22:45:00,46.4,42.2,30.08,SW,225,1.6,5.8,85,0.00,,,0.00,WUHU216HW,2013-04-08 02:45:00,
2013-04-07 22:48:00,46.4,42.2,30.08,SSW,203,5.1,5.4,85,0.00,,,0.00,WUHU216HW,2013-04-08 02:48:00,
2013-04-07 22:49:00,46.4,42.2,30.08,WSW,248,6.3,6.3,85,0.00,,,0.00,WUHU216HW,2013-04-08 02:49:00,
2013-04-07 22:50:00,46.4,42.2,30.08,West,270,1.3,6.3,85,0.00,,,0.00,WUHU216HW,2013-04-08 02:50:00,
2013-04-07 22:54:00,46.4,42.2,30.08,West,270,3.4,6.3,85,0.00,,,0.00,WUHU216HW,2013-04-08 02:54:00,
2013-04-07 22:57:00,46.4,42.2,30.08,SSW,203,4.9,6.3,85,0.00,,,0.00,WUHU216HW,2013-04-08 02:57:00,
2013-04-07 22:59:00,46.4,42.2,30.08,SW,225,2.5,6.3,85,0.00,,,0.00,WUHU216HW,2013-04-08 02:59:00,
2013-04-07 23:02:00,46.4,42.2,30.07,SSW,203,2.7,5.8,85,0.00,,,0.00,WUHU216HW,2013-04-08 03:02:00,
2013-04-07 23:05:00,46.4,42.5,30.07,WSW,248,3.8,5.8,86,0.00,,,0.00,WUHU216HW,2013-04-08 03:05:00,
2013-04-07 23:07:00,46.4,42.5,30.08,WSW,248,2.0,6.3,86,0.00,,,0.00,WUHU216HW,2013-04-08 03:07:00,
2013-04-07 23:10:00,46.4,42.5,30.07,WSW,248,4.7,6.3,86,0.00,,,0.00,WUHU216HW,2013-04-08 03:10:00,
2013-04-07 23:12:00,46.4,42.5,30.07,ESE,113,2.7,6.7,86,0.00,,,0.00,WUHU216HW,2013-04-08 03:12:00,
2013-04-07 23:15:00,46.4,42.2,30.07,WNW,293,0.4,6.7,85,0.00,,,0.00,WUHU216HW,2013-04-08 03:15:00,
2013-04-07 23:17:00,46.4,42.5,30.07,SE,135,4.0,6.7,86,0.00,,,0.00,WUHU216HW,2013-04-08 03:17:00,
2013-04-07 23:18:00,46.4,42.2,30.07,WSW,248,4.0,6.7,85,0.00,,,0.00,WUHU216HW,2013-04-08 03:18:00,
2013-04-07 23:20:00,46.4,42.2,30.07,SSE,158,2.5,6.7,85,0.00,,,0.00,WUHU216HW,2013-04-08 03:20:00,
2013-04-07 23:22:00,46.4,42.5,30.08,SSW,203,3.8,6.3,86,0.00,,,0.00,WUHU216HW,2013-04-08 03:22:00,
2013-04-07 23:23:00,46.4,42.5,30.08,SW,225,4.7,6.3,86,0.00,,,0.00,WUHU216HW,2013-04-08 03:23:00,
2013-04-07 23:26:00,46.6,42.7,30.07,SSW,203,4.0,6.3,86,0.00,,,0.00,WUHU216HW,2013-04-08 03:26:00,
2013-04-07 23:28:00,46.6,42.7,30.07,SE,135,6.0,7.6,86,0.00,,,0.00,WUHU216HW,2013-04-08 03:28:00,
2013-04-07 23:31:00,46.8,42.8,30.07,SSE,158,2.2,7.6,86,0.00,,,0.00,WUHU216HW,2013-04-08 03:31:00,
2013-04-07 23:33:00,46.8,42.8,30.07,South,180,7.2,7.6,86,0.00,,,0.00,WUHU216HW,2013-04-08 03:33:00,
2013-04-07 23:36:00,47.2,43.2,30.07,SW,225,6.9,7.8,86,0.00,,,0.00,WUHU216HW,2013-04-08 03:36:00,
2013-04-07 23:38:00,47.2,43.2,30.07,WSW,248,4.7,7.8,86,0.00,,,0.00,WUHU216HW,2013-04-08 03:38:00,
2013-04-07 23:43:00,47.3,43.4,30.07,SW,225,4.9,7.8,86,0.00,,,0.00,WUHU216HW,2013-04-08 03:43:00,
2013-04-07 23:48:00,47.7,43.8,30.07,West,270,6.7,8.3,86,0.00,,,0.00,WUHU216HW,2013-04-08 03:48:00,
2013-04-07 23:49:00,47.7,43.8,30.07,SSW,203,5.4,8.3,86,0.00,,,0.00,WUHU216HW,2013-04-08 03:49:00,
2013-04-07 23:53:00,47.9,43.6,30.07,SSW,203,5.1,8.3,85,0.00,,,0.00,WUHU216HW,2013-04-08 03:53:00,
2013-04-07 23:54:00,48.1,43.7,30.07,SSW,203,3.4,8.3,85,0.00,,,0.00,WUHU216HW,2013-04-08 03:54:00,
2013-04-07 23:58:00,48.2,43.9,30.07,WSW,248,4.3,8.1,85,0.00,,,0.00,WUHU216HW,2013-04-08 03:58:00,
2013-04-07 23:59:00,48.2,43.9,30.07,WSW,248,4.5,8.1,85,0.00,,,0.00,WUHU216HW,2013-04-08 03:59:00,